CCA927 YSSY-ZBAA

Flight info

Callsign CCA927
Flight time N/A
Altitude 32000
Route RIC H530 KABIX Q141 OVRON 1548S14812E APISO B462 PY B586 UNZ G339 LUKRA Y208 INVOK Z91 PSN Y782 BITUX Z53 BASEM Y685 SEL Y697 AGAVO A591 IKEKA W4 HCH W200 DOVIV W55 DUMAP
Aircraft B77W/H-SDE1E2E3FGHIJ2J3J4J5M1RWXY/LB1D1

Departure

Time N/A
Airport Sydney Kingsford Smith International Airport (YSSY)

Arrival

Time 2026-05-07 03:45
Airport Beijing Capital International Airport (ZBAA)
Time Latitude Longitude Altitude Speed Heading
2026-05-06 17:14 -32.15007 149.00177 30104 ft 437 kts 307°
2026-05-06 17:15 -32.11000 148.94453 30112 ft 437 kts 308°
2026-05-06 17:15 -32.06852 148.88760 30113 ft 437 kts 313°
2026-05-06 17:16 -32.01769 148.84178 30116 ft 441 kts 323°
2026-05-06 17:16 -31.96402 148.80045 30115 ft 445 kts 323°
2026-05-06 17:17 -31.90961 148.75859 30110 ft 442 kts 323°
2026-05-06 17:17 -31.85416 148.71599 30113 ft 443 kts 322°
2026-05-06 17:18 -31.79753 148.67253 30111 ft 443 kts 322°
2026-05-06 17:18 -31.74288 148.63063 30108 ft 443 kts 322°
2026-05-06 17:19 -31.68826 148.58882 30109 ft 444 kts 322°
2026-05-06 17:19 -31.63422 148.54753 30112 ft 443 kts 322°
2026-05-06 17:20 -31.57997 148.50612 30105 ft 444 kts 323°
2026-05-06 17:20 -31.52537 148.46449 30107 ft 446 kts 322°
2026-05-06 17:21 -31.47059 148.42281 30106 ft 445 kts 323°
2026-05-06 17:21 -31.41605 148.38136 30107 ft 444 kts 322°
2026-05-06 17:22 -31.36181 148.34019 30116 ft 445 kts 323°
2026-05-06 17:22 -31.30772 148.29919 30106 ft 446 kts 323°
2026-05-06 17:23 -31.25338 148.25807 30107 ft 445 kts 323°
2026-05-06 17:23 -31.19862 148.21668 30109 ft 447 kts 323°
2026-05-06 17:24 -31.14574 148.17677 30108 ft 446 kts 323°
2026-05-06 17:24 -31.09250 148.13664 30103 ft 446 kts 323°
2026-05-06 17:25 -31.03973 148.09692 30102 ft 448 kts 323°
2026-05-06 17:25 -30.98603 148.05656 30106 ft 448 kts 323°
2026-05-06 17:26 -30.93374 148.01732 30099 ft 448 kts 323°
2026-05-06 17:26 -30.88133 147.97803 30115 ft 447 kts 323°
2026-05-06 17:27 -30.82912 147.93895 30104 ft 447 kts 323°
2026-05-06 17:27 -30.77688 147.89989 30112 ft 446 kts 323°
2026-05-06 17:28 -30.72442 147.86072 30114 ft 447 kts 323°
2026-05-06 17:28 -30.67179 147.82147 30125 ft 448 kts 323°
2026-05-06 17:29 -30.61935 147.78241 30114 ft 447 kts 323°
2026-05-06 17:29 -30.56679 147.74333 30118 ft 447 kts 323°
2026-05-06 17:30 -30.51411 147.70419 30124 ft 447 kts 323°
2026-05-06 17:30 -30.45680 147.66170 30119 ft 445 kts 323°
2026-05-06 17:31 -30.40455 147.62299 30121 ft 448 kts 323°
2026-05-06 17:31 -30.35031 147.58411 30112 ft 449 kts 328°
2026-05-06 17:32 -30.28382 147.55777 30121 ft 463 kts 343°
2026-05-06 17:32 -30.21478 147.55522 30116 ft 479 kts
2026-05-06 17:33 -30.14906 147.56931 30120 ft 483 kts
2026-05-06 17:33 -30.08235 147.58470 30116 ft 487 kts
2026-05-06 17:34 -30.01638 147.59979 30120 ft 483 kts
2026-05-06 17:34 -29.95059 147.61472 30122 ft 483 kts
2026-05-06 17:35 -29.88415 147.62972 30127 ft 484 kts
2026-05-06 17:35 -29.81364 147.64558 30129 ft 485 kts
2026-05-06 17:36 -29.70201 147.67062 30135 ft 485 kts
2026-05-06 17:36 -29.62837 147.68713 30133 ft 483 kts
2026-05-06 17:37 -29.55317 147.70393 30131 ft 484 kts
2026-05-06 17:37 -29.47790 147.72072 30130 ft 485 kts
2026-05-06 17:38 -29.40468 147.73704 30131 ft 483 kts
2026-05-06 17:38 -29.33539 147.75244 30129 ft 486 kts
2026-05-06 17:39 -29.26294 147.76854 30129 ft 487 kts
2026-05-06 17:39 -29.19663 147.78326 30120 ft 484 kts
2026-05-06 17:40 -29.12915 147.79820 30122 ft 487 kts
2026-05-06 17:40 -29.06255 147.81251 30126 ft 486 kts
2026-05-06 17:41 -28.99623 147.82660 30133 ft 488 kts
2026-05-06 17:41 -28.92929 147.84082 30128 ft 487 kts
2026-05-06 17:42 -28.85475 147.85664 30138 ft 487 kts
2026-05-06 17:42 -28.77947 147.87260 30137 ft 485 kts
2026-05-06 17:43 -28.70508 147.88835 30132 ft 486 kts
2026-05-06 17:43 -28.63125 147.90396 30127 ft 486 kts
2026-05-06 17:44 -28.56480 147.91798 30132 ft 487 kts
2026-05-06 17:44 -28.49826 147.93204 30132 ft 483 kts
2026-05-06 17:45 -28.43228 147.94592 30127 ft 487 kts
2026-05-06 17:45 -28.36515 147.96004 30124 ft 486 kts
2026-05-06 17:46 -28.29833 147.97409 30129 ft 487 kts
2026-05-06 17:46 -28.23177 147.98805 30129 ft 484 kts
2026-05-06 17:47 -28.16534 148.00197 30125 ft 486 kts
2026-05-06 17:47 -28.09841 148.01599 30129 ft 484 kts
2026-05-06 17:48 -28.03185 148.02989 30125 ft 488 kts
2026-05-06 17:48 -27.96505 148.04382 30121 ft 488 kts
2026-05-06 17:49 -27.89836 148.05775 30130 ft 485 kts
2026-05-06 17:49 -27.83128 148.07172 30130 ft 485 kts
2026-05-06 17:50 -27.76495 148.08551 30138 ft 484 kts
2026-05-06 17:50 -27.69854 148.09930 30127 ft 484 kts
2026-05-06 17:51 -27.63230 148.11304 30131 ft 485 kts
2026-05-06 17:51 -27.56596 148.12679 30131 ft 487 kts
2026-05-06 17:52 -27.49962 148.14053 30136 ft 482 kts
2026-05-06 17:52 -27.43351 148.15419 30135 ft 484 kts
2026-05-06 17:53 -27.36719 148.16788 30135 ft 484 kts
2026-05-06 17:53 -27.30109 148.18195 30134 ft 482 kts
2026-05-06 17:54 -27.23508 148.19685 30136 ft 485 kts
2026-05-06 17:54 -27.16854 148.21182 30138 ft 487 kts
2026-05-06 17:55 -27.10245 148.22670 30137 ft 484 kts
2026-05-06 17:55 -27.03599 148.24158 30139 ft 486 kts
2026-05-06 17:56 -26.96970 148.25641 30140 ft 485 kts
2026-05-06 17:56 -26.90372 148.27113 30134 ft 486 kts
2026-05-06 17:57 -26.83665 148.28609 30141 ft 485 kts
2026-05-06 17:57 -26.77067 148.30080 30140 ft 484 kts
2026-05-06 17:58 -26.70431 148.31557 30142 ft 484 kts
2026-05-06 17:58 -26.63848 148.33019 30137 ft 483 kts
2026-05-06 17:59 -26.57242 148.34483 30138 ft 485 kts
2026-05-06 17:59 -26.50629 148.35950 30141 ft 485 kts
2026-05-06 18:00 -26.44000 148.37416 30134 ft 485 kts
2026-05-06 18:00 -26.37390 148.38879 30135 ft 484 kts
2026-05-06 18:01 -26.30752 148.40346 30135 ft 482 kts
2026-05-06 18:01 -26.24211 148.41789 30137 ft 481 kts
2026-05-06 18:02 -26.17610 148.43242 30138 ft 485 kts
2026-05-06 18:02 -26.10998 148.44698 30134 ft 483 kts
2026-05-06 18:03 -26.04379 148.46153 30139 ft 484 kts
2026-05-06 18:03 -25.97773 148.47563 30146 ft 482 kts 360°
2026-05-06 18:04 -25.91169 148.48933 30137 ft 485 kts 359°
2026-05-06 18:04 -25.84342 148.50356 30143 ft 481 kts 359°
2026-05-06 18:05 -25.76852 148.51909 30146 ft 486 kts 360°
2026-05-06 18:05 -25.70233 148.53288 30142 ft 483 kts 360°
2026-05-06 18:06 -25.63606 148.54662 30142 ft 485 kts
2026-05-06 18:06 -25.56971 148.56039 30137 ft 482 kts 360°
2026-05-06 18:07 -25.50381 148.57405 30129 ft 482 kts
2026-05-06 18:07 -25.43767 148.58774 30115 ft 483 kts
2026-05-06 18:08 -25.37149 148.60141 30107 ft 482 kts
2026-05-06 18:08 -25.30555 148.61504 30117 ft 484 kts
2026-05-06 18:09 -25.23939 148.62868 30112 ft 483 kts
2026-05-06 18:09 -25.17312 148.64235 30107 ft 482 kts
2026-05-06 18:10 -25.10609 148.65614 30085 ft 482 kts 360°
2026-05-06 18:10 -25.04016 148.66969 30082 ft 481 kts
2026-05-06 18:11 -24.97385 148.68330 30082 ft 485 kts
2026-05-06 18:11 -24.90806 148.69682 30077 ft 481 kts
2026-05-06 18:12 -24.84133 148.71048 30083 ft 483 kts
2026-05-06 18:12 -24.77538 148.72398 30081 ft 484 kts
2026-05-06 18:13 -24.70913 148.73753 30077 ft 483 kts
2026-05-06 18:13 -24.64271 148.75110 30077 ft 484 kts
2026-05-06 18:14 -24.57648 148.76462 30069 ft 484 kts
2026-05-06 18:14 -24.50964 148.77823 30070 ft 485 kts
2026-05-06 18:15 -24.44345 148.79172 30072 ft 484 kts
2026-05-06 18:15 -24.37711 148.80521 30070 ft 486 kts
2026-05-06 18:16 -24.31061 148.81873 30068 ft 485 kts
2026-05-06 18:16 -24.24362 148.83231 30067 ft 488 kts
2026-05-06 18:17 -24.17726 148.84578 30070 ft 486 kts
2026-05-06 18:17 -24.11047 148.85930 30065 ft 487 kts
2026-05-06 18:18 -24.04384 148.87277 30071 ft 488 kts
2026-05-06 18:18 -23.97659 148.88637 30069 ft 488 kts
2026-05-06 18:19 -23.90994 148.89983 30069 ft 487 kts
2026-05-06 18:19 -23.84317 148.91328 30077 ft 490 kts
2026-05-06 18:20 -23.77627 148.92677 30072 ft 488 kts
2026-05-06 18:20 -23.70919 148.94026 30071 ft 491 kts
2026-05-06 18:21 -23.64214 148.95375 30065 ft 490 kts
2026-05-06 18:21 -23.57467 148.96730 30057 ft 489 kts
2026-05-06 18:22 -23.50770 148.98074 30053 ft 490 kts
2026-05-06 18:22 -23.44066 148.99417 30047 ft 489 kts
2026-05-06 18:23 -23.37363 149.00758 30044 ft 490 kts
2026-05-06 18:23 -23.30654 149.02100 30038 ft 491 kts
2026-05-06 18:24 -23.23869 149.03456 30036 ft 493 kts
2026-05-06 18:24 -23.17151 149.04797 30032 ft 490 kts
2026-05-06 18:25 -23.10439 149.06136 30029 ft 492 kts
2026-05-06 18:25 -23.03655 149.07486 30023 ft 493 kts
2026-05-06 18:26 -22.96912 149.08827 30020 ft 495 kts
2026-05-06 18:26 -22.90155 149.10172 30021 ft 494 kts
2026-05-06 18:27 -22.83363 149.11500 30018 ft 491 kts 360°
2026-05-06 18:27 -22.79969 149.11769 30019 ft 480 kts 352°
2026-05-06 18:27 -22.76652 149.11665 30024 ft 478 kts 349°
2026-05-06 18:28 -22.69996 149.11351 30024 ft 479 kts 349°
2026-05-06 18:28 -22.63336 149.11035 30024 ft 477 kts 349°
2026-05-06 18:29 -22.56650 149.10716 30028 ft 481 kts 349°
2026-05-06 18:29 -22.49957 149.10400 30023 ft 478 kts 349°
2026-05-06 18:30 -22.43298 149.10084 30022 ft 482 kts 349°
2026-05-06 18:30 -22.36606 149.09769 30026 ft 480 kts 349°
2026-05-06 18:31 -22.29912 149.09453 30025 ft 479 kts 349°
2026-05-06 18:31 -22.23194 149.09134 30025 ft 484 kts 349°
2026-05-06 18:32 -22.16497 149.08821 30035 ft 482 kts 349°
2026-05-06 18:32 -22.09794 149.08505 30024 ft 481 kts 349°
2026-05-06 18:33 -22.03088 149.08189 30027 ft 483 kts 349°
2026-05-06 18:33 -21.96336 149.07873 30035 ft 482 kts 349°
2026-05-06 18:34 -21.89626 149.07558 30023 ft 483 kts 349°
2026-05-06 18:34 -21.82912 149.07243 30017 ft 481 kts 349°
2026-05-06 18:35 -21.76216 149.06929 30018 ft 481 kts 349°
2026-05-06 18:35 -21.69534 149.06604 30007 ft 480 kts 348°
2026-05-06 18:36 -21.62883 149.06050 30001 ft 478 kts 348°
2026-05-06 18:36 -21.56247 149.05489 29996 ft 477 kts 348°
2026-05-06 18:37 -21.49583 149.04930 29997 ft 478 kts 348°
2026-05-06 18:37 -21.42934 149.04379 30002 ft 477 kts 348°
2026-05-06 18:38 -21.36334 149.03836 29988 ft 476 kts 348°
2026-05-06 18:38 -21.29732 149.03293 29991 ft 476 kts 348°
2026-05-06 18:39 -21.23082 149.02748 29987 ft 477 kts 348°
2026-05-06 18:40 -21.13157 149.01935 29988 ft 477 kts 348°
2026-05-06 18:40 -21.06587 149.01399 29989 ft 475 kts 348°
2026-05-06 18:41 -20.99977 149.00859 29987 ft 475 kts 348°
2026-05-06 18:41 -20.93392 149.00322 29989 ft 473 kts 348°
2026-05-06 18:42 -20.86801 148.99785 29993 ft 475 kts 348°
2026-05-06 18:42 -20.80191 148.99245 29990 ft 476 kts 348°
2026-05-06 18:43 -20.73581 148.98708 29989 ft 475 kts 348°
2026-05-06 18:43 -20.66959 148.98169 29985 ft 476 kts 348°
2026-05-06 18:44 -20.60356 148.97633 29985 ft 477 kts 348°
2026-05-06 18:44 -20.53739 148.97096 29979 ft 475 kts 349°
2026-05-06 18:45 -20.47129 148.96561 29980 ft 476 kts 349°
2026-05-06 18:45 -20.40532 148.96027 29983 ft 477 kts 349°
2026-05-06 18:46 -20.33903 148.95482 29977 ft 475 kts 347°
2026-05-06 18:46 -20.27405 148.94392 29980 ft 471 kts 344°
2026-05-06 18:47 -20.20936 148.93247 29977 ft 471 kts 344°
2026-05-06 18:47 -20.14436 148.92122 29972 ft 472 kts 345°
2026-05-06 18:48 -20.07953 148.91014 29971 ft 472 kts 345°
2026-05-06 18:48 -20.01473 148.89914 29966 ft 472 kts 345°
2026-05-06 18:49 -19.94926 148.88808 29965 ft 472 kts 345°
2026-05-06 18:49 -19.88429 148.87712 29970 ft 471 kts 345°
2026-05-06 18:50 -19.81927 148.86618 29973 ft 473 kts 345°
2026-05-06 18:50 -19.75416 148.85522 29968 ft 472 kts 345°
2026-05-06 18:51 -19.68895 148.84428 29962 ft 473 kts 345°
2026-05-06 18:51 -19.62370 148.83333 29962 ft 474 kts 345°
2026-05-06 18:52 -19.55866 148.82243 29960 ft 473 kts 345°
2026-05-06 18:52 -19.49310 148.81145 29958 ft 475 kts 345°
2026-05-06 18:53 -19.42774 148.80052 29960 ft 475 kts 345°
2026-05-06 18:53 -19.36221 148.78955 29965 ft 475 kts 345°
2026-05-06 18:54 -19.29670 148.77861 29961 ft 476 kts 345°
2026-05-06 18:54 -19.23142 148.76772 29954 ft 476 kts 345°
2026-05-06 18:55 -19.16579 148.75678 29952 ft 476 kts 345°
2026-05-06 18:55 -19.10022 148.74585 29945 ft 477 kts 345°
2026-05-06 18:56 -19.03457 148.73491 29946 ft 477 kts 345°
2026-05-06 18:56 -18.96891 148.72398 29944 ft 478 kts 346°
2026-05-06 18:57 -18.90302 148.71303 29939 ft 477 kts 345°
2026-05-06 18:57 -18.83762 148.70216 29943 ft 476 kts 345°
2026-05-06 18:58 -18.77185 148.69125 29940 ft 477 kts 346°
2026-05-06 18:58 -18.70587 148.68030 29943 ft 478 kts 346°
2026-05-06 18:59 -18.64034 148.66945 29941 ft 477 kts 346°
2026-05-06 18:59 -18.57453 148.65855 29939 ft 478 kts 346°
2026-05-06 19:00 -18.50866 148.64764 29943 ft 478 kts 346°
2026-05-06 19:00 -18.44295 148.63678 29944 ft 478 kts 346°
2026-05-06 19:01 -18.37690 148.62587 29943 ft 479 kts 346°
2026-05-06 19:01 -18.31087 148.61497 29949 ft 480 kts 346°
2026-05-06 19:02 -18.24499 148.60411 29941 ft 478 kts 346°
2026-05-06 19:02 -18.17904 148.59323 29943 ft 479 kts 346°
2026-05-06 19:03 -18.11284 148.58234 29940 ft 479 kts 346°
2026-05-06 19:03 -18.04711 148.57152 29943 ft 478 kts 346°
2026-05-06 19:04 -17.98139 148.56070 29940 ft 480 kts 346°
2026-05-06 19:04 -17.91513 148.54982 29940 ft 480 kts 346°
2026-05-06 19:05 -17.84910 148.53897 29946 ft 479 kts 346°
2026-05-06 19:05 -17.78275 148.52809 29945 ft 480 kts 346°
2026-05-06 19:06 -17.71665 148.51724 29943 ft 481 kts 346°
2026-05-06 19:06 -17.65073 148.50644 29941 ft 481 kts 346°
2026-05-06 19:07 -17.58409 148.49553 29940 ft 482 kts 346°
2026-05-06 19:07 -17.51819 148.48476 29940 ft 482 kts 346°
2026-05-06 19:08 -17.45157 148.47386 29939 ft 482 kts 346°
2026-05-06 19:08 -17.38501 148.46300 29941 ft 483 kts 346°
2026-05-06 19:09 -17.31877 148.45218 29939 ft 482 kts 346°
2026-05-06 19:09 -17.25214 148.44132 29942 ft 483 kts 346°
2026-05-06 19:10 -17.18546 148.43045 29942 ft 483 kts 346°
2026-05-06 19:10 -17.11888 148.41960 29943 ft 484 kts 346°
2026-05-06 19:11 -17.05237 148.40878 29938 ft 483 kts 346°
2026-05-06 19:11 -16.98581 148.39795 29933 ft 483 kts 346°
2026-05-06 19:12 -16.91892 148.38707 29929 ft 485 kts 347°
2026-05-06 19:12 -16.85240 148.37628 29935 ft 485 kts 347°
2026-05-06 19:13 -16.78556 148.36543 29936 ft 486 kts 347°
2026-05-06 19:13 -16.71871 148.35458 29932 ft 484 kts 347°
2026-05-06 19:14 -16.65178 148.34374 29940 ft 485 kts 347°
2026-05-06 19:14 -16.58498 148.33292 29941 ft 486 kts 347°
2026-05-06 19:15 -16.51803 148.32208 29934 ft 485 kts 347°
2026-05-06 19:15 -16.45069 148.31119 29934 ft 487 kts 347°
2026-05-06 19:16 -16.38385 148.30040 29930 ft 487 kts 347°
2026-05-06 19:16 -16.31683 148.28957 29932 ft 488 kts 347°
2026-05-06 19:17 -16.24937 148.27869 29929 ft 487 kts 347°
2026-05-06 19:17 -16.18233 148.26787 29933 ft 489 kts 347°
2026-05-06 19:18 -16.11503 148.25702 29930 ft 489 kts 347°
2026-05-06 19:18 -16.04728 148.24611 29931 ft 490 kts 347°
2026-05-06 19:19 -15.98022 148.23532 29931 ft 490 kts 347°
2026-05-06 19:19 -15.91249 148.22444 29930 ft 489 kts 347°
2026-05-06 19:20 -15.84545 148.21365 29933 ft 489 kts 347°
2026-05-06 19:20 -15.77766 148.20277 29933 ft 488 kts 347°
2026-05-06 19:21 -15.71045 148.19199 29933 ft 489 kts 347°
2026-05-06 19:21 -15.64295 148.18115 29932 ft 490 kts 348°
2026-05-06 19:22 -15.57557 148.17035 29933 ft 488 kts 348°
2026-05-06 19:22 -15.50827 148.15958 29932 ft 490 kts 348°
2026-05-06 19:23 -15.44082 148.14877 29931 ft 489 kts 348°
2026-05-06 19:23 -15.37354 148.13802 29931 ft 489 kts 348°
2026-05-06 19:24 -15.30587 148.12720 29930 ft 489 kts 348°
2026-05-06 19:24 -15.23849 148.11644 29928 ft 489 kts 348°
2026-05-06 19:25 -15.17121 148.10570 29922 ft 488 kts 348°
2026-05-06 19:25 -15.10351 148.09489 29914 ft 489 kts 348°
2026-05-06 19:26 -15.03657 148.08421 29907 ft 489 kts 348°
2026-05-06 19:26 -14.96867 148.07340 29906 ft 489 kts 348°
2026-05-06 19:27 -14.90130 148.06267 29907 ft 488 kts 348°
2026-05-06 19:27 -14.83406 148.05197 29909 ft 489 kts 348°
2026-05-06 19:28 -14.76703 148.04131 29911 ft 488 kts 348°
2026-05-06 19:28 -14.69965 148.03059 29911 ft 489 kts 348°
2026-05-06 19:29 -14.63204 148.01985 29910 ft 489 kts 348°
2026-05-06 19:29 -14.56453 148.00914 29909 ft 489 kts 348°
2026-05-06 19:30 -14.49690 147.99841 29911 ft 490 kts 348°
2026-05-06 19:30 -14.42972 147.98776 29907 ft 488 kts 348°
2026-05-06 19:31 -14.36230 147.97708 29908 ft 490 kts 348°
2026-05-06 19:31 -14.26123 147.96107 29907 ft 487 kts 348°
2026-05-06 19:32 -14.19412 147.95046 29907 ft 489 kts 348°
2026-05-06 19:32 -14.12614 147.93970 29907 ft 490 kts 348°
2026-05-06 19:33 -14.05879 147.92906 29905 ft 489 kts 348°
2026-05-06 19:33 -13.99110 147.91836 29905 ft 489 kts 348°
2026-05-06 19:34 -13.92413 147.90781 29905 ft 488 kts 348°
2026-05-06 19:34 -13.85684 147.89719 29908 ft 489 kts 348°
2026-05-06 19:35 -13.78895 147.88647 29906 ft 489 kts 348°
2026-05-06 19:35 -13.72172 147.87589 29903 ft 490 kts 348°
2026-05-06 19:36 -13.65422 147.86526 29904 ft 489 kts 348°
2026-05-06 19:36 -13.58677 147.85465 29901 ft 490 kts 348°
2026-05-06 19:37 -13.51922 147.84402 29897 ft 489 kts 348°
2026-05-06 19:37 -13.45164 147.83340 29896 ft 489 kts 348°
2026-05-06 19:38 -13.38419 147.82280 29894 ft 491 kts 348°
2026-05-06 19:38 -13.31663 147.81220 29893 ft 490 kts 348°
2026-05-06 19:39 -13.24922 147.80162 29890 ft 490 kts 348°
2026-05-06 19:39 -13.18175 147.79103 29886 ft 489 kts 348°
2026-05-06 19:40 -13.11379 147.78038 29887 ft 490 kts 348°
2026-05-06 19:40 -13.04644 147.76982 29887 ft 491 kts 348°
2026-05-06 19:41 -12.97859 147.75920 29884 ft 491 kts 348°
2026-05-06 19:41 -12.91097 147.74863 29884 ft 491 kts 348°
2026-05-06 19:42 -12.84321 147.73802 29890 ft 491 kts 348°
2026-05-06 19:42 -12.77551 147.72743 29887 ft 491 kts 348°
2026-05-06 19:43 -12.70783 147.71687 29887 ft 491 kts 348°
2026-05-06 19:43 -12.64021 147.70630 29887 ft 492 kts 348°
2026-05-06 19:44 -12.57277 147.69579 29886 ft 491 kts 348°
2026-05-06 19:44 -12.50467 147.68517 29885 ft 491 kts 348°
2026-05-06 19:45 -12.43716 147.67464 29884 ft 493 kts 348°
2026-05-06 19:45 -12.36917 147.66403 29887 ft 493 kts 349°
2026-05-06 19:46 -12.30139 147.65349 29886 ft 491 kts 349°
2026-05-06 19:46 -12.23362 147.64293 29887 ft 492 kts 349°
2026-05-06 19:47 -12.16543 147.63232 29887 ft 493 kts 349°
2026-05-06 19:47 -12.09746 147.62175 29887 ft 493 kts 349°
2026-05-06 19:48 -12.02949 147.61119 29886 ft 495 kts 349°
2026-05-06 19:48 -11.96159 147.60065 29885 ft 494 kts 349°
2026-05-06 19:49 -11.89316 147.59004 29880 ft 492 kts 349°
2026-05-06 19:49 -11.82350 147.57924 29887 ft 493 kts 349°
2026-05-06 19:50 -11.75547 147.56871 29888 ft 493 kts 349°
2026-05-06 19:50 -11.68743 147.55817 29886 ft 493 kts 349°
2026-05-06 19:51 -11.61943 147.54765 29886 ft 493 kts 349°
2026-05-06 19:51 -11.55156 147.53716 29886 ft 494 kts 349°
2026-05-06 19:52 -11.48326 147.52660 29888 ft 493 kts 349°
2026-05-06 19:52 -11.41559 147.51614 29887 ft 493 kts 349°
2026-05-06 19:53 -11.34770 147.50566 29886 ft 492 kts 349°
2026-05-06 19:53 -11.27995 147.49519 29885 ft 492 kts 349°
2026-05-06 19:54 -11.21170 147.48467 29886 ft 493 kts 349°
2026-05-06 19:54 -11.14402 147.47423 29885 ft 492 kts 349°
2026-05-06 19:55 -11.07585 147.46372 29884 ft 492 kts 349°
2026-05-06 19:55 -11.00806 147.45328 29884 ft 493 kts 349°
2026-05-06 19:56 -10.93978 147.44276 29884 ft 493 kts 349°
2026-05-06 19:56 -10.87156 147.43227 29888 ft 492 kts 349°
2026-05-06 19:57 -10.80381 147.42183 29887 ft 492 kts 349°
2026-05-06 19:57 -10.73611 147.41142 29888 ft 493 kts 349°
2026-05-06 19:58 -10.66802 147.40096 29887 ft 494 kts 349°
2026-05-06 19:58 -10.59970 147.39046 29887 ft 493 kts 349°
2026-05-06 19:59 -10.53152 147.37999 29886 ft 494 kts 349°
2026-05-06 19:59 -10.46344 147.36954 29886 ft 493 kts 349°
2026-05-06 20:00 -10.39535 147.35908 29886 ft 495 kts 350°
2026-05-06 20:00 -10.32707 147.34862 29886 ft 493 kts 350°
2026-05-06 20:01 -10.25908 147.33820 29889 ft 496 kts 350°
2026-05-06 20:01 -10.19078 147.32773 29889 ft 493 kts 350°
2026-05-06 20:02 -10.12273 147.31731 29889 ft 494 kts 350°
2026-05-06 20:02 -10.05448 147.30685 29889 ft 494 kts 350°
2026-05-06 20:03 -9.98484 147.29619 29889 ft 494 kts 350°
2026-05-06 20:03 -9.91515 147.28554 29890 ft 494 kts 350°
2026-05-06 20:04 -9.84363 147.27460 29892 ft 494 kts 350°
2026-05-06 20:04 -9.77543 147.26417 29888 ft 495 kts 350°
2026-05-06 20:05 -9.70769 147.25383 29886 ft 494 kts 350°
2026-05-06 20:05 -9.63917 147.24336 29883 ft 494 kts 350°
2026-05-06 20:06 -9.57087 147.23292 29885 ft 495 kts 350°
2026-05-06 20:06 -9.50287 147.22255 29890 ft 495 kts 350°
2026-05-06 20:07 -9.43439 147.21196 29899 ft 494 kts 349°
2026-05-06 20:07 -9.36661 147.19992 29907 ft 495 kts 349°
2026-05-06 20:08 -9.29894 147.18785 29920 ft 495 kts 349°
2026-05-06 20:08 -9.23061 147.17574 29930 ft 496 kts 349°
2026-05-06 20:09 -9.16239 147.16365 29925 ft 495 kts 349°
2026-05-06 20:09 -9.09441 147.15164 29943 ft 496 kts 349°
2026-05-06 20:10 -9.02609 147.13959 29933 ft 494 kts 349°
2026-05-06 20:10 -8.95846 147.12766 29943 ft 496 kts 349°
2026-05-06 20:11 -8.89030 147.11565 29972 ft 496 kts 349°
2026-05-06 20:11 -8.82196 147.10361 30016 ft 495 kts 349°
2026-05-06 20:12 -8.75379 147.09160 30070 ft 496 kts 349°
2026-05-06 20:12 -8.68595 147.07967 30068 ft 494 kts 349°
2026-05-06 20:13 -8.61770 147.06766 30115 ft 496 kts 349°
2026-05-06 20:13 -8.54979 147.05571 30123 ft 494 kts 349°
2026-05-06 20:14 -8.48165 147.04373 30138 ft 495 kts 349°
2026-05-06 20:14 -8.41357 147.03177 30211 ft 496 kts 349°
2026-05-06 20:15 -8.34538 147.01979 30239 ft 495 kts 349°
2026-05-06 20:15 -8.27757 147.00787 30308 ft 494 kts 349°
2026-05-06 20:16 -8.20951 146.99593 30319 ft 493 kts 349°
2026-05-06 20:16 -8.14174 146.98402 30353 ft 495 kts 349°
2026-05-06 20:17 -8.07341 146.97205 30357 ft 495 kts 349°
2026-05-06 20:17 -8.00567 146.96016 30350 ft 494 kts 349°
2026-05-06 20:18 -7.93808 146.94830 30355 ft 494 kts 349°
2026-05-06 20:18 -7.86992 146.93636 30292 ft 495 kts 349°
2026-05-06 20:19 -7.80192 146.92445 30282 ft 497 kts 349°
2026-05-06 20:19 -7.73364 146.91249 30222 ft 496 kts 349°
2026-05-06 20:20 -7.66564 146.90057 30249 ft 496 kts 349°
2026-05-06 20:20 -7.59723 146.88861 30259 ft 496 kts 349°
2026-05-06 20:21 -7.52925 146.87671 30276 ft 495 kts 349°
2026-05-06 20:21 -7.46098 146.86476 30261 ft 497 kts 349°
2026-05-06 20:22 -7.39266 146.85281 30230 ft 496 kts 349°
2026-05-06 20:22 -7.32463 146.84093 30207 ft 496 kts 349°
2026-05-06 20:23 -7.25642 146.82901 30145 ft 496 kts 349°
2026-05-06 20:23 -7.18781 146.81702 30161 ft 497 kts 349°
2026-05-06 20:24 -7.11959 146.80510 30149 ft 498 kts 349°
2026-05-06 20:24 -7.05146 146.79321 30156 ft 496 kts 349°
2026-05-06 20:25 -6.98306 146.78126 30169 ft 497 kts 349°
2026-05-06 20:25 -6.91476 146.76935 30151 ft 497 kts 349°
2026-05-06 20:26 -6.84636 146.75742 30099 ft 497 kts 349°
2026-05-06 20:26 -6.77802 146.74550 30059 ft 497 kts 349°
2026-05-06 20:27 -6.70928 146.73352 30030 ft 498 kts 349°
2026-05-06 20:27 -6.64078 146.72157 30014 ft 498 kts 349°
2026-05-06 20:28 -6.57276 146.70972 30003 ft 498 kts 349°
2026-05-06 20:28 -6.50333 146.70192 29986 ft 499 kts 355°
2026-05-06 20:29 -6.43424 146.69652 30031 ft 498 kts 355°
2026-05-06 20:29 -6.36490 146.69083 30096 ft 499 kts 355°
2026-05-06 20:30 -6.26086 146.68201 30236 ft 497 kts 355°
2026-05-06 20:31 -6.19175 146.67607 30254 ft 498 kts 355°
2026-05-06 20:31 -6.12296 146.67013 30222 ft 497 kts 355°
2026-05-06 20:32 -6.05344 146.66411 30195 ft 500 kts 355°
2026-05-06 20:32 -5.98423 146.65810 30181 ft 499 kts 355°
2026-05-06 20:33 -5.91466 146.65205 30115 ft 499 kts 355°
2026-05-06 20:33 -5.84534 146.64604 30055 ft 499 kts 355°
2026-05-06 20:34 -5.77574 146.64000 30020 ft 499 kts 355°
2026-05-06 20:34 -5.70643 146.63397 29969 ft 500 kts 355°
2026-05-06 20:35 -5.63718 146.62796 29949 ft 500 kts 355°
2026-05-06 20:35 -5.56722 146.62189 29936 ft 501 kts 355°
2026-05-06 20:36 -5.49796 146.61587 29913 ft 500 kts 355°
2026-05-06 20:36 -5.42837 146.60983 29891 ft 501 kts 355°
2026-05-06 20:37 -5.35848 146.60378 29885 ft 504 kts 355°
2026-05-06 20:37 -5.28838 146.59770 29887 ft 504 kts 355°
2026-05-06 20:38 -5.21680 146.59149 29878 ft 503 kts 355°
2026-05-06 20:38 -5.13601 146.58449 29862 ft 502 kts 355°
2026-05-06 20:39 -5.05497 146.57745 29852 ft 503 kts 355°
2026-05-06 20:39 -4.98525 146.57143 29845 ft 503 kts 355°
2026-05-06 20:40 -4.91527 146.56535 29846 ft 504 kts 355°
2026-05-06 20:40 -4.84499 146.55927 29851 ft 504 kts 355°
2026-05-06 20:41 -4.77473 146.55318 29849 ft 504 kts 355°
2026-05-06 20:41 -4.70476 146.54712 29858 ft 503 kts 355°
2026-05-06 20:42 -4.63501 146.54109 29865 ft 501 kts 355°
2026-05-06 20:42 -4.56560 146.53508 29868 ft 502 kts 355°
2026-05-06 20:43 -4.49574 146.52904 29869 ft 503 kts 355°
2026-05-06 20:43 -4.42587 146.52300 29869 ft 502 kts 355°
2026-05-06 20:44 -4.35572 146.51692 29868 ft 502 kts 355°
2026-05-06 20:44 -4.28636 146.51092 29869 ft 501 kts 355°
2026-05-06 20:45 -4.21654 146.50488 29869 ft 501 kts 356°
2026-05-06 20:45 -4.14701 146.49889 29868 ft 501 kts 356°
2026-05-06 20:46 -4.07698 146.49283 29863 ft 502 kts 355°
2026-05-06 20:46 -4.00733 146.48680 29857 ft 501 kts 355°
2026-05-06 20:47 -3.93800 146.48082 29850 ft 500 kts 356°
2026-05-06 20:47 -3.86753 146.47473 29849 ft 501 kts 356°
2026-05-06 20:48 -3.79809 146.46874 29850 ft 500 kts 356°
2026-05-06 20:48 -3.72859 146.46272 29848 ft 500 kts 356°
2026-05-06 20:49 -3.65906 146.45673 29847 ft 500 kts 356°
2026-05-06 20:49 -3.58986 146.45075 29848 ft 499 kts 356°
2026-05-06 20:50 -3.52004 146.44472 29848 ft 500 kts 356°
2026-05-06 20:50 -3.45063 146.43874 29849 ft 500 kts 356°
2026-05-06 20:51 -3.38121 146.43274 29848 ft 499 kts 356°
2026-05-06 20:51 -3.31175 146.42676 29848 ft 500 kts 356°
2026-05-06 20:52 -3.24231 146.42076 29849 ft 499 kts 356°
2026-05-06 20:52 -3.17275 146.41476 29848 ft 499 kts 356°
2026-05-06 20:53 -3.10337 146.40878 29851 ft 498 kts 356°
2026-05-06 20:53 -3.03429 146.40282 29854 ft 500 kts 356°
2026-05-06 20:54 -2.96445 146.39681 29864 ft 500 kts 356°
2026-05-06 20:54 -2.89511 146.39082 29869 ft 499 kts 356°
2026-05-06 20:55 -2.82588 146.38486 29868 ft 500 kts 356°
2026-05-06 20:55 -2.75631 146.37886 29868 ft 499 kts 356°
2026-05-06 20:56 -2.68706 146.37289 29870 ft 499 kts 356°
2026-05-06 20:56 -2.61747 146.36690 29866 ft 499 kts 356°
2026-05-06 20:57 -2.54814 146.36092 29858 ft 500 kts 356°
2026-05-06 20:57 -2.47864 146.35494 29852 ft 501 kts 356°
2026-05-06 20:58 -2.40899 146.34892 29854 ft 500 kts 356°
2026-05-06 20:58 -2.33942 146.34294 29850 ft 500 kts 356°
2026-05-06 20:59 -2.27011 146.33696 29850 ft 500 kts 356°
2026-05-06 20:59 -2.20013 146.33095 29845 ft 500 kts 356°
2026-05-06 21:00 -2.13104 146.32500 29849 ft 500 kts 356°
2026-05-06 21:00 -2.06151 146.31900 29846 ft 501 kts 356°
2026-05-06 21:01 -1.99189 146.31302 29848 ft 501 kts 356°
2026-05-06 21:01 -1.92227 146.30702 29846 ft 502 kts 356°
2026-05-06 21:02 -1.85231 146.30100 29849 ft 502 kts 356°
2026-05-06 21:02 -1.78260 146.29500 29852 ft 502 kts 356°
2026-05-06 21:03 -1.71236 146.28896 29860 ft 503 kts 356°
2026-05-06 21:03 -1.64278 146.28296 29860 ft 504 kts 356°
2026-05-06 21:04 -1.57260 146.27692 29860 ft 504 kts 356°
2026-05-06 21:04 -1.50212 146.27086 29860 ft 504 kts 356°
2026-05-06 21:05 -1.43183 146.26482 29856 ft 505 kts 356°
2026-05-06 21:05 -1.36198 146.25880 29856 ft 506 kts 356°
2026-05-06 21:06 -1.29143 146.25273 29854 ft 506 kts 356°
2026-05-06 21:06 -1.22107 146.24667 29852 ft 507 kts 356°
2026-05-06 21:07 -1.15082 146.24063 29849 ft 506 kts 356°
2026-05-06 21:07 -1.08013 146.23456 29846 ft 506 kts 356°
2026-05-06 21:08 -1.00965 146.22849 29833 ft 506 kts 356°
2026-05-06 21:08 -0.93931 146.22244 29826 ft 506 kts 356°
2026-05-06 21:09 -0.86943 146.21643 29828 ft 506 kts 356°
2026-05-06 21:09 -0.79874 146.21036 29828 ft 506 kts 356°
2026-05-06 21:10 -0.72854 146.20432 29830 ft 506 kts 356°
2026-05-06 21:10 -0.65858 146.19830 29831 ft 505 kts 356°
2026-05-06 21:11 -0.58788 146.19222 29835 ft 505 kts 356°
2026-05-06 21:11 -0.51774 146.18619 29838 ft 505 kts 356°
2026-05-06 21:12 -0.44774 146.18016 29839 ft 505 kts 356°
2026-05-06 21:12 -0.37734 146.17412 29841 ft 505 kts 356°
2026-05-06 21:13 -0.30696 146.16806 29845 ft 505 kts 356°
2026-05-06 21:13 -0.23685 146.16203 29848 ft 505 kts 356°
2026-05-06 21:14 -0.16680 146.15601 29847 ft 505 kts 356°
2026-05-06 21:14 -0.09667 146.14998 29847 ft 504 kts 356°
2026-05-06 21:15 -0.02644 146.14394 29846 ft 504 kts 356°
2026-05-06 21:15 0.04383 146.13788 29849 ft 504 kts 356°
2026-05-06 21:16 0.11401 146.13178 29843 ft 505 kts 356°
2026-05-06 21:16 0.18402 146.12570 29847 ft 505 kts 356°
2026-05-06 21:17 0.25421 146.11961 29850 ft 504 kts 356°
2026-05-06 21:17 0.32399 146.11356 29848 ft 505 kts 356°
2026-05-06 21:18 0.39419 146.10745 29847 ft 504 kts 356°
2026-05-06 21:18 0.46437 146.10136 29850 ft 503 kts 356°
2026-05-06 21:19 0.53411 146.09532 29850 ft 502 kts 356°
2026-05-06 21:19 0.60419 146.08923 29847 ft 504 kts 356°
2026-05-06 21:20 0.67409 146.08316 29851 ft 503 kts 356°
2026-05-06 21:20 0.74402 146.07710 29848 ft 503 kts 356°
2026-05-06 21:21 0.81432 146.07100 29849 ft 503 kts 356°
2026-05-06 21:21 0.88389 146.06496 29845 ft 502 kts 356°
2026-05-06 21:22 0.95387 146.05888 29846 ft 502 kts 356°
2026-05-06 21:22 1.02344 146.05284 29843 ft 503 kts 356°
2026-05-06 21:23 1.09341 146.04677 29831 ft 504 kts 356°
2026-05-06 21:23 1.16351 146.04068 29828 ft 504 kts 356°
2026-05-06 21:24 1.23395 146.03458 29826 ft 504 kts 356°
2026-05-06 21:24 1.30358 146.02852 29826 ft 503 kts 356°
2026-05-06 21:25 1.37390 146.02241 29826 ft 503 kts 356°
2026-05-06 21:25 1.44352 146.01637 29827 ft 503 kts 356°
2026-05-06 21:26 1.51381 146.01027 29827 ft 503 kts 356°
2026-05-06 21:26 1.58347 146.00423 29829 ft 504 kts 356°
2026-05-06 21:27 1.65360 145.99812 29831 ft 505 kts 356°
2026-05-06 21:27 1.72366 145.99205 29829 ft 505 kts 356°
2026-05-06 21:28 1.79409 145.98593 29831 ft 504 kts 356°
2026-05-06 21:28 1.86381 145.97987 29829 ft 504 kts 356°
2026-05-06 21:29 1.93427 145.97376 29828 ft 504 kts 356°
2026-05-06 21:29 2.00426 145.96767 29827 ft 504 kts 356°
2026-05-06 21:30 2.07418 145.96159 29828 ft 505 kts 356°
2026-05-06 21:30 2.14471 145.95546 29833 ft 505 kts 356°
2026-05-06 21:31 2.21485 145.94937 29837 ft 504 kts 356°
2026-05-06 21:31 2.28463 145.94330 29841 ft 504 kts 356°
2026-05-06 21:32 2.35470 145.93721 29842 ft 504 kts 356°
2026-05-06 21:32 2.46024 145.92804 29838 ft 504 kts 356°
2026-05-06 21:33 2.53034 145.92194 29839 ft 504 kts 356°
2026-05-06 21:33 2.60013 145.91588 29834 ft 506 kts 356°
2026-05-06 21:34 2.67065 145.90974 29833 ft 506 kts 356°
2026-05-06 21:34 2.74095 145.90363 29832 ft 505 kts 356°
2026-05-06 21:35 2.81082 145.89755 29831 ft 504 kts 356°
2026-05-06 21:35 2.88110 145.89143 29828 ft 505 kts 356°
2026-05-06 21:36 2.95150 145.88531 29825 ft 505 kts 356°
2026-05-06 21:36 3.02144 145.87923 29833 ft 507 kts 356°
2026-05-06 21:37 3.09186 145.87309 29807 ft 506 kts 356°
2026-05-06 21:37 3.16263 145.86694 29809 ft 507 kts 356°
2026-05-06 21:38 3.23319 145.86079 29809 ft 508 kts 356°
2026-05-06 21:38 3.30363 145.85466 29819 ft 508 kts 356°
2026-05-06 21:39 3.37424 145.84851 29826 ft 507 kts 356°
2026-05-06 21:39 3.44482 145.84238 29825 ft 507 kts 356°
2026-05-06 21:40 3.51539 145.83623 29825 ft 507 kts 356°
2026-05-06 21:40 3.58579 145.83009 29826 ft 508 kts 356°
2026-05-06 21:41 3.65630 145.82394 29826 ft 508 kts 356°
2026-05-06 21:41 3.72730 145.81776 29825 ft 509 kts 356°
2026-05-06 21:42 3.79759 145.81163 29824 ft 508 kts 356°
2026-05-06 21:42 3.86860 145.80545 29826 ft 507 kts 356°
2026-05-06 21:43 3.93909 145.79930 29827 ft 507 kts 356°
2026-05-06 21:43 4.00974 145.79314 29828 ft 508 kts 356°
2026-05-06 21:44 4.08027 145.78699 29827 ft 509 kts 356°
2026-05-06 21:44 4.15062 145.78085 29827 ft 509 kts 356°
2026-05-06 21:45 4.22185 145.77463 29827 ft 509 kts 356°
2026-05-06 21:45 4.29224 145.76849 29826 ft 508 kts 356°
2026-05-06 21:46 4.36273 145.76234 29825 ft 505 kts 355°
2026-05-06 21:46 4.43290 145.75621 29826 ft 503 kts 355°
2026-05-06 21:47 4.50264 145.75012 29826 ft 503 kts 355°
2026-05-06 21:47 4.57271 145.74400 29826 ft 504 kts 355°
2026-05-06 21:48 4.64284 145.73789 29822 ft 505 kts 355°
2026-05-06 21:48 4.71286 145.73177 29819 ft 505 kts 355°
2026-05-06 21:49 4.78320 145.72562 29813 ft 504 kts 355°
2026-05-06 21:49 4.85306 145.71951 29809 ft 504 kts 355°
2026-05-06 21:50 4.92322 145.71338 29807 ft 503 kts 355°
2026-05-06 21:50 4.99312 145.70726 29806 ft 502 kts 355°
2026-05-06 21:51 5.06312 145.70106 29805 ft 504 kts 355°
2026-05-06 21:51 5.13277 145.69484 29806 ft 503 kts 355°
2026-05-06 21:52 5.20265 145.68861 29806 ft 504 kts 355°
2026-05-06 21:52 5.27265 145.68237 29802 ft 504 kts 355°
2026-05-06 21:53 5.34286 145.67610 29804 ft 503 kts 355°
2026-05-06 21:53 5.41259 145.66989 29806 ft 502 kts 355°
2026-05-06 21:54 5.48219 145.66368 29808 ft 501 kts 355°
2026-05-06 21:54 5.55216 145.65742 29812 ft 503 kts 355°
2026-05-06 21:55 5.62163 145.65123 29804 ft 502 kts 355°
2026-05-06 21:55 5.69169 145.64497 29804 ft 501 kts 354°
2026-05-06 21:56 5.76115 145.63878 29809 ft 501 kts 355°
2026-05-06 21:56 5.83075 145.63255 29807 ft 502 kts 355°
2026-05-06 21:57 5.90068 145.62631 29806 ft 499 kts 355°
2026-05-06 21:57 5.97008 145.62010 29810 ft 499 kts 355°
2026-05-06 21:58 6.03990 145.61386 29818 ft 501 kts 355°
2026-05-06 21:58 6.10962 145.60762 29814 ft 498 kts 354°
2026-05-06 21:59 6.17979 145.60135 29812 ft 501 kts 355°
2026-05-06 21:59 6.24900 145.59515 29810 ft 499 kts 355°
2026-05-06 22:00 6.31845 145.58894 29809 ft 498 kts 355°
2026-05-06 22:00 6.38726 145.58278 29803 ft 498 kts 355°
2026-05-06 22:01 6.45649 145.57658 29802 ft 497 kts 355°
2026-05-06 22:01 6.52514 145.57044 29799 ft 497 kts 355°
2026-05-06 22:02 6.59429 145.56424 29795 ft 496 kts 355°
2026-05-06 22:02 6.66338 145.55806 29793 ft 495 kts 355°
2026-05-06 22:03 6.73188 145.55191 29791 ft 495 kts 355°
2026-05-06 22:03 6.80063 145.54575 29788 ft 493 kts 355°
2026-05-06 22:04 6.86899 145.53961 29789 ft 494 kts 355°
2026-05-06 22:04 6.93735 145.53348 29788 ft 492 kts 355°
2026-05-06 22:05 7.00627 145.52730 29768 ft 493 kts 355°
2026-05-06 22:05 7.07451 145.52118 29794 ft 494 kts 355°
2026-05-06 22:06 7.14336 145.51498 29793 ft 494 kts 355°
2026-05-06 22:06 7.21180 145.50884 29797 ft 492 kts 355°
2026-05-06 22:07 7.28025 145.50269 29795 ft 492 kts 355°
2026-05-06 22:07 7.34882 145.49652 29791 ft 491 kts 355°
2026-05-06 22:08 7.41730 145.49037 29782 ft 493 kts 356°
2026-05-06 22:08 7.48571 145.48422 29783 ft 492 kts 356°
2026-05-06 22:09 7.55412 145.47807 29783 ft 494 kts 356°
2026-05-06 22:09 7.62256 145.47191 29784 ft 493 kts 356°
2026-05-06 22:10 7.69136 145.46571 29787 ft 496 kts 356°
2026-05-06 22:10 7.76004 145.45953 29795 ft 496 kts 356°
2026-05-06 22:11 7.82896 145.45332 29784 ft 494 kts 356°
2026-05-06 22:11 7.89754 145.44714 29792 ft 495 kts 356°
2026-05-06 22:12 7.96606 145.44096 29788 ft 493 kts 356°
2026-05-06 22:12 8.03486 145.43477 29791 ft 496 kts 356°
2026-05-06 22:13 8.10390 145.42854 29792 ft 496 kts 356°
2026-05-06 22:13 8.17288 145.42232 29804 ft 496 kts 356°
2026-05-06 22:14 8.24160 145.41611 29810 ft 496 kts 356°
2026-05-06 22:14 8.31072 145.40987 29804 ft 495 kts 356°
2026-05-06 22:15 8.37960 145.40366 29814 ft 496 kts 356°
2026-05-06 22:15 8.44857 145.39741 29809 ft 496 kts 356°
2026-05-06 22:16 8.51726 145.39121 29810 ft 496 kts 356°
2026-05-06 22:16 8.58662 145.38493 29810 ft 495 kts 356°
2026-05-06 22:17 8.65541 145.37871 29810 ft 497 kts 355°
2026-05-06 22:17 8.72438 145.37247 29806 ft 497 kts 355°
2026-05-06 22:18 8.79394 145.36618 29803 ft 498 kts 355°
2026-05-06 22:18 8.86305 145.35992 29807 ft 498 kts 356°
2026-05-06 22:19 8.93178 145.35370 29801 ft 497 kts 355°
2026-05-06 22:19 9.00123 145.34740 29811 ft 497 kts 355°
2026-05-06 22:20 9.07053 145.34111 29811 ft 499 kts 355°
2026-05-06 22:20 9.13935 145.33487 29813 ft 498 kts 355°
2026-05-06 22:21 9.20862 145.32858 29820 ft 496 kts 356°
2026-05-06 22:21 9.27769 145.32233 29835 ft 498 kts 355°
2026-05-06 22:22 9.34704 145.31602 29841 ft 498 kts 355°
2026-05-06 22:22 9.41625 145.30882 29842 ft 499 kts 353°
2026-05-06 22:23 9.48505 145.29973 29835 ft 498 kts 353°
2026-05-06 22:23 9.55388 145.29071 29835 ft 498 kts 353°
2026-05-06 22:24 9.62285 145.28174 29840 ft 498 kts 353°
2026-05-06 22:24 9.69158 145.27284 29844 ft 498 kts 353°
2026-05-06 22:25 9.76100 145.26387 29844 ft 500 kts 353°
2026-05-06 22:25 9.82991 145.25497 29841 ft 498 kts 353°
2026-05-06 22:26 9.89870 145.24609 29835 ft 498 kts 353°
2026-05-06 22:26 9.96789 145.23715 29832 ft 500 kts 353°
2026-05-06 22:27 10.03816 145.22809 29832 ft 497 kts 353°
2026-05-06 22:27 10.10761 145.21912 29841 ft 497 kts 353°
2026-05-06 22:28 10.17618 145.21025 29856 ft 498 kts 353°
2026-05-06 22:28 10.24549 145.20129 29856 ft 498 kts 353°
2026-05-06 22:29 10.31435 145.19238 29857 ft 499 kts 353°
2026-05-06 22:29 10.38340 145.18344 29860 ft 499 kts 353°
2026-05-06 22:30 10.45209 145.17456 29859 ft 500 kts 353°
2026-05-06 22:30 10.52128 145.16559 29859 ft 499 kts 353°
2026-05-06 22:31 10.59063 145.15662 29859 ft 499 kts 353°
2026-05-06 22:31 10.65905 145.14774 29862 ft 497 kts 353°
2026-05-06 22:32 10.72824 145.13876 29863 ft 498 kts 353°
2026-05-06 22:32 10.79719 145.12982 29857 ft 499 kts 353°
2026-05-06 22:33 10.86595 145.12089 29851 ft 499 kts 352°
2026-05-06 22:33 10.93510 145.11192 29858 ft 498 kts 352°
2026-05-06 22:34 11.00370 145.10300 29867 ft 498 kts 352°
2026-05-06 22:34 11.07282 145.09402 29868 ft 498 kts 352°
2026-05-06 22:35 11.14157 145.08508 29870 ft 499 kts 352°
2026-05-06 22:35 11.21078 145.07606 29867 ft 496 kts 352°
2026-05-06 22:36 11.27945 145.06714 29870 ft 498 kts 352°
2026-05-06 22:36 11.34828 145.05817 29869 ft 499 kts 352°
2026-05-06 22:37 11.41724 145.04918 29869 ft 498 kts 352°
2026-05-06 22:37 11.48584 145.04024 29869 ft 496 kts 352°
2026-05-06 22:38 11.55489 145.03124 29868 ft 497 kts 352°
2026-05-06 22:38 11.62363 145.02226 29869 ft 497 kts 352°
2026-05-06 22:39 11.69246 145.01327 29870 ft 498 kts 352°
2026-05-06 22:39 11.76033 145.00441 29870 ft 498 kts 352°
2026-05-06 22:40 11.82904 144.99504 29868 ft 498 kts 351°
2026-05-06 22:40 11.89797 144.98389 29878 ft 498 kts 350°
2026-05-06 22:41 12.00041 144.96733 29886 ft 497 kts 350°
2026-05-06 22:42 12.06896 144.95631 29888 ft 497 kts 350°
2026-05-06 22:42 12.13767 144.94530 29893 ft 497 kts 350°
2026-05-06 22:43 12.20597 144.93434 29894 ft 497 kts 350°
2026-05-06 22:43 12.27435 144.92337 29892 ft 495 kts 350°
2026-05-06 22:44 12.34253 144.91244 29897 ft 496 kts 350°
2026-05-06 22:44 12.41066 144.90150 29894 ft 495 kts 350°
2026-05-06 22:45 12.47911 144.89052 29890 ft 495 kts 350°
2026-05-06 22:45 12.54730 144.87956 29888 ft 495 kts 350°
2026-05-06 22:46 12.61552 144.86861 29887 ft 496 kts 350°
2026-05-06 22:46 12.68350 144.85768 29888 ft 494 kts 350°
2026-05-06 22:47 12.75156 144.84674 29886 ft 494 kts 350°
2026-05-06 22:47 12.81955 144.83580 29885 ft 493 kts 350°
2026-05-06 22:48 12.88767 144.82483 29887 ft 495 kts 350°
2026-05-06 22:48 12.95587 144.81384 29883 ft 494 kts 350°
2026-05-06 22:49 13.02385 144.80289 29885 ft 493 kts 350°
2026-05-06 22:49 13.09137 144.79199 29888 ft 492 kts 349°
2026-05-06 22:50 13.15960 144.78099 29900 ft 493 kts 350°
2026-05-06 22:50 13.22720 144.77006 29905 ft 493 kts 349°
2026-05-06 22:51 13.29508 144.75911 29917 ft 492 kts 350°
2026-05-06 22:51 13.36338 144.74806 29931 ft 493 kts 350°
2026-05-06 22:52 13.42994 144.73315 29936 ft 491 kts 339°
2026-05-06 22:52 13.49049 144.70047 29937 ft 489 kts 323°
2026-05-06 22:53 13.54294 144.65614 29945 ft 489 kts 319°
2026-05-06 22:53 13.59513 144.61070 29944 ft 489 kts 319°
2026-05-06 22:54 13.64667 144.56576 29929 ft 488 kts 319°
2026-05-06 22:54 13.69865 144.52040 29920 ft 489 kts 319°
2026-05-06 22:55 13.75034 144.47525 29922 ft 487 kts 319°
2026-05-06 22:55 13.80222 144.42990 29923 ft 488 kts 319°
2026-05-06 22:56 13.85392 144.38469 29925 ft 487 kts 320°
2026-05-06 22:56 13.90555 144.33949 29927 ft 488 kts 319°
2026-05-06 22:57 13.95732 144.29416 29929 ft 487 kts 319°
2026-05-06 22:57 14.00902 144.24886 29925 ft 489 kts 319°
2026-05-06 22:58 14.06072 144.20352 29916 ft 487 kts 320°
2026-05-06 22:58 14.11194 144.15858 29914 ft 487 kts 320°
2026-05-06 22:59 14.16360 144.11324 29919 ft 486 kts 320°
2026-05-06 22:59 14.21498 144.06810 29917 ft 487 kts 320°
2026-05-06 23:00 14.26682 144.02252 29923 ft 487 kts 320°
2026-05-06 23:00 14.31819 143.97734 29921 ft 488 kts 320°
2026-05-06 23:01 14.36995 143.93179 29929 ft 486 kts 320°
2026-05-06 23:01 14.42111 143.88673 29927 ft 487 kts 320°
2026-05-06 23:02 14.47279 143.84119 29930 ft 485 kts 320°
2026-05-06 23:02 14.52394 143.79610 29934 ft 487 kts 320°
2026-05-06 23:03 14.57541 143.75067 29932 ft 486 kts 320°
2026-05-06 23:03 14.62679 143.70531 29934 ft 486 kts 320°
2026-05-06 23:04 14.67812 143.65997 29932 ft 486 kts 320°
2026-05-06 23:04 14.72964 143.61443 29935 ft 485 kts 320°
2026-05-06 23:05 14.78062 143.56920 29942 ft 486 kts 320°
2026-05-06 23:05 14.83195 143.52361 29944 ft 484 kts 320°
2026-05-06 23:06 14.88286 143.47838 29945 ft 485 kts 320°
2026-05-06 23:06 14.93429 143.43266 29946 ft 484 kts 320°
2026-05-06 23:07 14.98508 143.38747 29945 ft 484 kts 320°
2026-05-06 23:07 15.03634 143.34186 29945 ft 485 kts 320°
2026-05-06 23:08 15.08736 143.29640 29937 ft 485 kts 320°
2026-05-06 23:08 15.13863 143.25070 29941 ft 484 kts 320°
2026-05-06 23:09 15.18958 143.20526 29944 ft 485 kts 320°
2026-05-06 23:09 15.24067 143.15967 29938 ft 485 kts 320°
2026-05-06 23:10 15.29175 143.11404 29938 ft 484 kts 320°
2026-05-06 23:10 15.34282 143.06841 29943 ft 485 kts 320°
2026-05-06 23:11 15.39388 143.02275 29942 ft 485 kts 320°
2026-05-06 23:11 15.44473 142.97725 29943 ft 485 kts 320°
2026-05-06 23:12 15.49587 142.93146 29938 ft 484 kts 320°
2026-05-06 23:12 15.54709 142.88554 29937 ft 486 kts 320°
2026-05-06 23:13 15.59810 142.83981 29944 ft 485 kts 320°
2026-05-06 23:13 15.64907 142.79408 29944 ft 485 kts 320°
2026-05-06 23:14 15.70018 142.74818 29943 ft 484 kts 320°
2026-05-06 23:14 15.75108 142.70245 29946 ft 485 kts 320°
2026-05-06 23:15 15.80215 142.65652 29955 ft 486 kts 320°
2026-05-06 23:15 15.85321 142.61060 29968 ft 486 kts 320°
2026-05-06 23:16 15.90401 142.56483 29964 ft 484 kts 320°
2026-05-06 23:16 15.95493 142.51897 29963 ft 484 kts 320°
2026-05-06 23:17 16.00606 142.47287 29971 ft 483 kts 320°
2026-05-06 23:17 16.05685 142.42703 29969 ft 484 kts 320°
2026-05-06 23:18 16.10757 142.38123 29968 ft 484 kts 320°
2026-05-06 23:18 16.15844 142.33525 29974 ft 485 kts 319°
2026-05-06 23:19 16.20964 142.28896 29978 ft 485 kts 320°
2026-05-06 23:19 16.26040 142.24301 29975 ft 484 kts 319°
2026-05-06 23:20 16.31102 142.19717 29979 ft 484 kts 320°
2026-05-06 23:20 16.36189 142.15108 29974 ft 484 kts 320°
2026-05-06 23:21 16.41288 142.10483 29975 ft 484 kts 320°
2026-05-06 23:21 16.46377 142.05864 29968 ft 485 kts 320°
2026-05-06 23:22 16.51473 142.01236 29978 ft 486 kts 319°
2026-05-06 23:22 16.56541 141.96629 29976 ft 486 kts 320°
2026-05-06 23:23 16.61661 141.91989 29972 ft 484 kts 320°
2026-05-06 23:23 16.66742 141.87402 29973 ft 485 kts 320°
2026-05-06 23:24 16.71849 141.82788 29971 ft 485 kts 320°
2026-05-06 23:24 16.76941 141.78183 29973 ft 485 kts 320°
2026-05-06 23:25 16.82069 141.73541 29977 ft 487 kts 320°
2026-05-06 23:25 16.87158 141.68932 29964 ft 487 kts 320°
2026-05-06 23:26 16.92279 141.64288 29966 ft 485 kts 320°
2026-05-06 23:26 16.97392 141.59650 29973 ft 486 kts 320°
2026-05-06 23:27 17.02491 141.55020 29968 ft 487 kts 320°
2026-05-06 23:27 17.07598 141.50380 29972 ft 486 kts 320°
2026-05-06 23:28 17.12718 141.45723 29978 ft 487 kts 320°
2026-05-06 23:28 17.17816 141.41084 29976 ft 487 kts 320°
2026-05-06 23:29 17.22924 141.36432 29976 ft 486 kts 320°
2026-05-06 23:29 17.28036 141.31773 29981 ft 487 kts 320°
2026-05-06 23:30 17.33145 141.27113 29985 ft 488 kts 320°
2026-05-06 23:30 17.38253 141.22450 29982 ft 488 kts 319°
2026-05-06 23:31 17.43379 141.17767 29985 ft 487 kts 319°
2026-05-06 23:31 17.48455 141.13127 29981 ft 486 kts 319°
2026-05-06 23:32 17.53577 141.08441 29985 ft 487 kts 319°
2026-05-06 23:32 17.58669 141.03778 29987 ft 487 kts 319°
2026-05-06 23:33 17.63800 140.99075 29986 ft 487 kts 319°
2026-05-06 23:33 17.68904 140.94395 29988 ft 488 kts 319°
2026-05-06 23:34 17.73972 140.89745 29986 ft 487 kts 319°
2026-05-06 23:34 17.79104 140.85031 29984 ft 488 kts 319°
2026-05-06 23:35 17.84192 140.80353 29990 ft 487 kts 319°
2026-05-06 23:35 17.89292 140.75661 29989 ft 487 kts 319°
2026-05-06 23:36 17.94404 140.70955 29984 ft 488 kts 319°
2026-05-06 23:36 17.99488 140.66270 29987 ft 488 kts 319°
2026-05-06 23:37 18.04608 140.61549 29993 ft 488 kts 319°
2026-05-06 23:37 18.09723 140.56828 30000 ft 488 kts 319°
2026-05-06 23:38 18.14818 140.52121 30009 ft 488 kts 319°
2026-05-06 23:38 18.19931 140.47395 30004 ft 488 kts 320°
2026-05-06 23:39 18.25022 140.42685 29997 ft 490 kts 319°
2026-05-06 23:39 18.30117 140.37968 30001 ft 489 kts 319°
2026-05-06 23:40 18.35243 140.33217 30001 ft 488 kts 319°
2026-05-06 23:40 18.40324 140.28505 30003 ft 489 kts 319°
2026-05-06 23:41 18.45416 140.23778 30003 ft 488 kts 319°
2026-05-06 23:41 18.50525 140.19032 30005 ft 488 kts 319°
2026-05-06 23:42 18.55602 140.14313 30003 ft 488 kts 319°
2026-05-06 23:42 18.60690 140.09578 30013 ft 490 kts 319°
2026-05-06 23:43 18.65812 140.04808 30008 ft 490 kts 319°
2026-05-06 23:43 18.70912 140.00053 30006 ft 489 kts 319°
2026-05-06 23:44 18.76112 139.95204 30007 ft 488 kts 319°
2026-05-06 23:44 18.81210 139.90445 30005 ft 488 kts 319°
2026-05-06 23:45 18.86319 139.85669 30012 ft 489 kts 319°
2026-05-06 23:45 18.91408 139.80911 30009 ft 490 kts 319°
2026-05-06 23:46 18.96478 139.76164 30009 ft 491 kts 319°
2026-05-06 23:46 19.01597 139.71370 30006 ft 490 kts 319°
2026-05-06 23:47 19.06676 139.66608 30007 ft 488 kts 319°
2026-05-06 23:47 19.11763 139.61833 30010 ft 488 kts 319°
2026-05-06 23:48 19.16827 139.57077 30008 ft 488 kts 319°
2026-05-06 23:48 19.21924 139.52286 30006 ft 490 kts 319°
2026-05-06 23:49 19.27015 139.47496 30008 ft 489 kts 319°
2026-05-06 23:49 19.32079 139.42728 30005 ft 490 kts 319°
2026-05-06 23:50 19.37176 139.37924 30004 ft 489 kts 319°
2026-05-06 23:50 19.44797 139.30734 30005 ft 489 kts 319°
2026-05-06 23:51 19.49877 139.25935 30007 ft 490 kts 319°
2026-05-06 23:51 19.54961 139.21130 30008 ft 490 kts 319°
2026-05-06 23:52 19.60036 139.16327 30007 ft 489 kts 319°
2026-05-06 23:52 19.65100 139.11533 30009 ft 489 kts 318°
2026-05-06 23:53 19.70178 139.06720 30008 ft 488 kts 318°
2026-05-06 23:53 19.75236 139.01920 30008 ft 488 kts 318°
2026-05-06 23:54 19.80298 138.97115 30006 ft 487 kts 318°
2026-05-06 23:54 19.85345 138.92317 30010 ft 489 kts 318°
2026-05-06 23:55 19.90414 138.87495 30013 ft 491 kts 318°
2026-05-06 23:55 19.95508 138.82646 30011 ft 487 kts 318°
2026-05-06 23:56 20.00541 138.77849 30011 ft 488 kts 318°
2026-05-06 23:56 20.05594 138.73030 30014 ft 489 kts 318°
2026-05-06 23:57 20.10643 138.68210 30013 ft 487 kts 318°
2026-05-06 23:57 20.15705 138.63373 30015 ft 488 kts 318°
2026-05-06 23:58 20.20762 138.58537 30019 ft 487 kts 318°
2026-05-06 23:58 20.25828 138.53687 30016 ft 488 kts 318°
2026-05-06 23:59 20.30946 138.48784 30018 ft 507 kts 318°
2026-05-06 23:59 20.36489 138.43468 30018 ft 523 kts 317°
2026-05-07 00:00 20.42059 138.38129 30011 ft 526 kts 319°
2026-05-07 00:00 20.48047 138.33392 30668 ft 519 kts 323°
2026-05-07 00:01 20.51068 138.31099 31636 ft 506 kts 323°
2026-05-07 00:01 20.54002 138.28873 32793 ft 492 kts 323°
2026-05-07 00:01 20.56737 138.26796 33682 ft 483 kts 323°
2026-05-07 00:01 20.59482 138.24709 34379 ft 478 kts 323°
2026-05-07 00:02 20.62269 138.22591 34881 ft 477 kts 322°
2026-05-07 00:02 20.64971 138.20535 35376 ft 475 kts 322°
2026-05-07 00:02 20.67673 138.18478 35857 ft 474 kts 322°
2026-05-07 00:02 20.70354 138.16438 36028 ft 478 kts 322°
2026-05-07 00:03 20.75809 138.12279 36037 ft 492 kts 322°
2026-05-07 00:03 20.81457 138.07970 36037 ft 500 kts 322°
2026-05-07 00:04 20.87132 138.03636 36034 ft 503 kts 322°
2026-05-07 00:04 20.92849 137.99268 36033 ft 504 kts 322°
2026-05-07 00:05 20.98546 137.94911 36033 ft 505 kts 322°
2026-05-07 00:05 21.04240 137.90552 36033 ft 505 kts 322°
2026-05-07 00:06 21.09969 137.86162 36034 ft 505 kts 322°
2026-05-07 00:06 21.15709 137.81758 36033 ft 504 kts 322°
2026-05-07 00:07 21.21419 137.77374 36029 ft 504 kts 322°
2026-05-07 00:07 21.27102 137.73007 36026 ft 505 kts 322°
2026-05-07 00:08 21.32824 137.68605 36016 ft 505 kts 322°
2026-05-07 00:08 21.38509 137.64227 36017 ft 505 kts 322°
2026-05-07 00:09 21.44226 137.59821 36019 ft 505 kts 322°
2026-05-07 00:09 21.49965 137.55392 36022 ft 506 kts 321°
2026-05-07 00:10 21.55694 137.50969 36021 ft 506 kts 321°
2026-05-07 00:10 21.61403 137.46555 36020 ft 506 kts 321°
2026-05-07 00:11 21.67088 137.42156 36023 ft 505 kts 321°
2026-05-07 00:11 21.72819 137.37715 36026 ft 505 kts 321°
2026-05-07 00:12 21.78506 137.33305 36032 ft 505 kts 321°
2026-05-07 00:12 21.84192 137.28893 36032 ft 506 kts 321°
2026-05-07 00:13 21.89896 137.24461 36036 ft 506 kts 321°
2026-05-07 00:13 21.95607 137.20020 36034 ft 506 kts 321°
2026-05-07 00:14 22.01345 137.15552 36037 ft 505 kts 321°
2026-05-07 00:14 22.07037 137.11116 36034 ft 505 kts 321°
2026-05-07 00:15 22.12734 137.06671 36031 ft 505 kts 321°
2026-05-07 00:15 22.18436 137.02219 36034 ft 505 kts 321°
2026-05-07 00:16 22.24116 136.97778 36035 ft 505 kts 320°
2026-05-07 00:16 22.29781 136.93346 36034 ft 505 kts 320°
2026-05-07 00:17 22.35490 136.88873 36031 ft 504 kts 320°
2026-05-07 00:17 22.41146 136.84439 36031 ft 504 kts 320°
2026-05-07 00:18 22.46821 136.79985 36036 ft 503 kts 320°
2026-05-07 00:18 22.52474 136.75543 36032 ft 503 kts 320°
2026-05-07 00:19 22.58149 136.71080 36030 ft 502 kts 320°
2026-05-07 00:19 22.63808 136.66625 36032 ft 502 kts 320°
2026-05-07 00:20 22.69483 136.62151 36032 ft 502 kts 320°
2026-05-07 00:20 22.75130 136.57695 36035 ft 502 kts 320°
2026-05-07 00:21 22.80797 136.53220 36029 ft 502 kts 320°
2026-05-07 00:21 22.86431 136.48766 36029 ft 502 kts 320°
2026-05-07 00:22 22.92078 136.44296 36033 ft 501 kts 320°
2026-05-07 00:22 22.97700 136.39841 36028 ft 501 kts 320°
2026-05-07 00:23 23.03348 136.35362 36028 ft 501 kts 319°
2026-05-07 00:23 23.08975 136.30893 36040 ft 501 kts 319°
2026-05-07 00:24 23.14599 136.26422 36037 ft 501 kts 319°
2026-05-07 00:24 23.20205 136.21962 36036 ft 501 kts 319°
2026-05-07 00:25 23.25852 136.17464 36036 ft 501 kts 319°
2026-05-07 00:25 23.31465 136.12988 36035 ft 501 kts 319°
2026-05-07 00:26 23.37076 136.08508 36035 ft 501 kts 319°
2026-05-07 00:26 23.42699 136.04016 36034 ft 501 kts 319°
2026-05-07 00:27 23.48334 135.99507 36034 ft 501 kts 319°
2026-05-07 00:27 23.53926 135.95029 36034 ft 501 kts 319°
2026-05-07 00:28 23.59574 135.90501 36032 ft 500 kts 318°
2026-05-07 00:28 23.65191 135.85992 36034 ft 501 kts 319°
2026-05-07 00:29 23.70807 135.81480 36032 ft 500 kts 319°
2026-05-07 00:30 23.82034 135.72446 36032 ft 500 kts 318°
2026-05-07 00:30 23.87598 135.67960 36032 ft 501 kts 318°
2026-05-07 00:31 23.93220 135.63423 36031 ft 501 kts 318°
2026-05-07 00:31 23.98833 135.58888 36031 ft 501 kts 318°
2026-05-07 00:32 24.04439 135.54355 36029 ft 501 kts 318°
2026-05-07 00:32 24.10031 135.49826 36025 ft 501 kts 318°
2026-05-07 00:33 24.15655 135.45267 36025 ft 500 kts 318°
2026-05-07 00:33 24.21266 135.40714 36023 ft 499 kts 318°
2026-05-07 00:34 24.26827 135.36197 36020 ft 499 kts 318°
2026-05-07 00:34 24.32416 135.31651 36035 ft 499 kts 317°
2026-05-07 00:35 24.37977 135.27122 36035 ft 500 kts 317°
2026-05-07 00:35 24.43574 135.22560 36033 ft 499 kts 317°
2026-05-07 00:36 24.49198 135.17972 36035 ft 499 kts 317°
2026-05-07 00:36 24.54746 135.13438 36033 ft 499 kts 317°
2026-05-07 00:37 24.60311 135.08887 36036 ft 499 kts 317°
2026-05-07 00:37 24.65894 135.04314 36034 ft 499 kts 317°
2026-05-07 00:38 24.71450 134.99760 36033 ft 499 kts 317°
2026-05-07 00:38 24.77017 134.95190 36033 ft 499 kts 318°
2026-05-07 00:39 24.82616 134.90590 36036 ft 499 kts 317°
2026-05-07 00:39 24.88178 134.86015 36034 ft 499 kts 317°
2026-05-07 00:40 24.93755 134.81422 36034 ft 499 kts 318°
2026-05-07 00:40 24.99326 134.76828 36035 ft 498 kts 318°
2026-05-07 00:41 25.04909 134.72220 36032 ft 497 kts 318°
2026-05-07 00:41 25.10439 134.67650 36029 ft 496 kts 318°
2026-05-07 00:42 25.15994 134.63055 36027 ft 495 kts 318°
2026-05-07 00:42 25.21492 134.58499 36030 ft 495 kts 318°
2026-05-07 00:43 25.27011 134.53923 36029 ft 495 kts 318°
2026-05-07 00:43 25.32525 134.49345 36029 ft 495 kts 318°
2026-05-07 00:44 25.38074 134.44733 36024 ft 494 kts 318°
2026-05-07 00:44 25.43536 134.40187 36024 ft 493 kts 319°
2026-05-07 00:45 25.49042 134.35599 36026 ft 492 kts 319°
2026-05-07 00:45 25.54547 134.31006 36038 ft 492 kts 318°
2026-05-07 00:46 25.60038 134.26421 36033 ft 492 kts 318°
2026-05-07 00:46 25.65501 134.21854 36036 ft 492 kts 319°
2026-05-07 00:47 25.70967 134.17278 36036 ft 491 kts 319°
2026-05-07 00:47 25.76434 134.12695 36030 ft 491 kts 319°
2026-05-07 00:48 25.81900 134.08109 36018 ft 490 kts 319°
2026-05-07 00:48 25.87328 134.03549 36018 ft 489 kts 319°
2026-05-07 00:49 25.92769 133.98973 36016 ft 489 kts 319°
2026-05-07 00:49 25.98202 133.94397 36004 ft 488 kts 319°
2026-05-07 00:50 26.03615 133.89833 36014 ft 488 kts 319°
2026-05-07 00:50 26.09033 133.85260 36004 ft 487 kts 319°
2026-05-07 00:51 26.14426 133.80702 36007 ft 487 kts 319°
2026-05-07 00:51 26.19861 133.76103 36002 ft 487 kts 320°
2026-05-07 00:52 26.25242 133.71545 35999 ft 487 kts 320°
2026-05-07 00:52 26.30664 133.66946 36003 ft 486 kts 320°
2026-05-07 00:53 26.36074 133.62352 36006 ft 486 kts 320°
2026-05-07 00:53 26.41465 133.57770 35999 ft 485 kts 320°
2026-05-07 00:54 26.46836 133.53197 36001 ft 484 kts 320°
2026-05-07 00:54 26.52225 133.48605 35997 ft 483 kts 320°
2026-05-07 00:55 26.57554 133.44058 35990 ft 483 kts 320°
2026-05-07 00:55 26.62909 133.39482 35997 ft 482 kts 320°
2026-05-07 00:56 26.68257 133.34907 35994 ft 481 kts 320°
2026-05-07 00:56 26.73616 133.30319 35999 ft 480 kts 320°
2026-05-07 00:57 26.78925 133.25768 36004 ft 480 kts 320°
2026-05-07 00:57 26.84206 133.21234 36002 ft 480 kts 320°
2026-05-07 00:58 26.89555 133.16637 35996 ft 479 kts 320°
2026-05-07 00:58 26.94829 133.12097 35995 ft 479 kts 320°
2026-05-07 00:59 27.02763 133.05260 35994 ft 478 kts 320°
2026-05-07 01:00 27.08036 133.00708 35991 ft 478 kts 321°
2026-05-07 01:00 27.13351 132.96115 35994 ft 478 kts 321°
2026-05-07 01:01 27.18631 132.91547 35995 ft 477 kts 321°
2026-05-07 01:01 27.23862 132.87013 35995 ft 477 kts 321°
2026-05-07 01:02 27.29151 132.82426 35995 ft 478 kts 321°
2026-05-07 01:02 27.34434 132.77838 35992 ft 477 kts 321°
2026-05-07 01:03 27.39705 132.73254 35994 ft 477 kts 321°
2026-05-07 01:03 27.44964 132.68677 35988 ft 478 kts 321°
2026-05-07 01:04 27.50239 132.64078 35990 ft 477 kts 321°
2026-05-07 01:04 27.55478 132.59505 35993 ft 478 kts 321°
2026-05-07 01:05 27.60739 132.54907 35986 ft 477 kts 321°
2026-05-07 01:05 27.65992 132.50311 35982 ft 477 kts 321°
2026-05-07 01:06 27.71235 132.45718 35979 ft 478 kts 321°
2026-05-07 01:06 27.76494 132.41106 35977 ft 477 kts 321°
2026-05-07 01:07 27.81742 132.36496 35981 ft 477 kts 321°
2026-05-07 01:07 27.87008 132.31865 35979 ft 477 kts 321°
2026-05-07 01:08 27.92244 132.27254 35972 ft 477 kts 321°
2026-05-07 01:08 27.97493 132.22627 35972 ft 476 kts 321°
2026-05-07 01:09 28.02709 132.18024 35974 ft 475 kts 321°
2026-05-07 01:09 28.07913 132.13423 35981 ft 475 kts 321°
2026-05-07 01:10 28.13141 132.08798 35992 ft 474 kts 321°
2026-05-07 01:10 28.18346 132.04185 35993 ft 474 kts 321°
2026-05-07 01:11 28.23543 131.99574 35999 ft 475 kts 321°
2026-05-07 01:11 28.28760 131.94940 35994 ft 475 kts 321°
2026-05-07 01:12 28.33871 131.90393 35995 ft 475 kts 321°
2026-05-07 01:12 28.39093 131.85742 35991 ft 475 kts 321°
2026-05-07 01:13 28.44297 131.81102 35993 ft 476 kts 321°
2026-05-07 01:13 28.49502 131.76456 35991 ft 476 kts 321°
2026-05-07 01:14 28.54734 131.71777 35988 ft 477 kts 321°
2026-05-07 01:14 28.59957 131.67102 35990 ft 477 kts 321°
2026-05-07 01:15 28.65178 131.62422 35991 ft 477 kts 321°
2026-05-07 01:15 28.70419 131.57716 35990 ft 478 kts 321°
2026-05-07 01:16 28.75628 131.53036 35991 ft 478 kts 321°
2026-05-07 01:16 28.80873 131.48317 35989 ft 479 kts 321°
2026-05-07 01:17 28.86122 131.43587 35986 ft 478 kts 321°
2026-05-07 01:17 28.91359 131.38861 35983 ft 479 kts 321°
2026-05-07 01:18 28.96590 131.34135 35989 ft 479 kts 320°
2026-05-07 01:18 29.01813 131.29410 35988 ft 480 kts 320°
2026-05-07 01:19 29.07035 131.24680 35993 ft 480 kts 320°
2026-05-07 01:19 29.12300 131.19904 36001 ft 481 kts 320°
2026-05-07 01:20 29.17531 131.15152 35998 ft 481 kts 320°
2026-05-07 01:20 29.22808 131.10353 35999 ft 482 kts 320°
2026-05-07 01:21 29.28036 131.05591 35994 ft 482 kts 320°
2026-05-07 01:21 29.33295 131.00795 35998 ft 483 kts 320°
2026-05-07 01:22 29.38554 130.95993 35996 ft 483 kts 320°
2026-05-07 01:22 29.43819 130.91177 35994 ft 483 kts 320°
2026-05-07 01:23 29.49086 130.86356 35991 ft 483 kts 320°
2026-05-07 01:23 29.54366 130.81514 35994 ft 484 kts 320°
2026-05-07 01:24 29.59624 130.76685 35990 ft 484 kts 320°
2026-05-07 01:24 29.64905 130.71829 35989 ft 484 kts 320°
2026-05-07 01:25 29.70144 130.67004 35990 ft 485 kts 320°
2026-05-07 01:25 29.75440 130.62122 35988 ft 484 kts 320°
2026-05-07 01:26 29.80702 130.57263 35986 ft 485 kts 320°
2026-05-07 01:26 29.85955 130.52408 35986 ft 485 kts 320°
2026-05-07 01:27 29.91207 130.47543 35986 ft 485 kts 320°
2026-05-07 01:27 29.96463 130.42671 35986 ft 486 kts 319°
2026-05-07 01:28 30.01735 130.37775 35985 ft 487 kts 320°
2026-05-07 01:28 30.07006 130.32875 35995 ft 487 kts 319°
2026-05-07 01:29 30.12292 130.27953 35998 ft 487 kts 319°
2026-05-07 01:29 30.17599 130.23004 35997 ft 487 kts 319°
2026-05-07 01:30 30.22867 130.18086 35994 ft 487 kts 319°
2026-05-07 01:30 30.28171 130.13124 35994 ft 488 kts 318°
2026-05-07 01:31 30.33430 130.08200 35994 ft 488 kts 319°
2026-05-07 01:31 30.38739 130.03221 35997 ft 488 kts 318°
2026-05-07 01:32 30.44017 129.98265 35999 ft 489 kts 318°
2026-05-07 01:32 30.49313 129.93285 36001 ft 490 kts 318°
2026-05-07 01:33 30.54570 129.88332 36000 ft 490 kts 318°
2026-05-07 01:33 30.59884 129.83321 36000 ft 490 kts 318°
2026-05-07 01:34 30.65227 129.78273 36001 ft 491 kts 318°
2026-05-07 01:34 30.70497 129.73288 36000 ft 491 kts 318°
2026-05-07 01:35 30.75811 129.68254 36001 ft 491 kts 318°
2026-05-07 01:35 30.81136 129.63200 35999 ft 491 kts 318°
2026-05-07 01:36 30.86441 129.58160 35998 ft 491 kts 318°
2026-05-07 01:36 30.91738 129.53120 35997 ft 491 kts 318°
2026-05-07 01:37 30.97030 129.48077 35995 ft 492 kts 317°
2026-05-07 01:37 31.02331 129.43019 35994 ft 491 kts 317°
2026-05-07 01:38 31.07627 129.37958 35991 ft 492 kts 317°
2026-05-07 01:38 31.12952 129.32860 35993 ft 493 kts 317°
2026-05-07 01:39 31.18267 129.27763 35988 ft 493 kts 317°
2026-05-07 01:39 31.23546 129.22696 35994 ft 493 kts 317°
2026-05-07 01:40 31.28853 129.17593 35999 ft 493 kts 317°
2026-05-07 01:40 31.34192 129.12451 35996 ft 494 kts 317°
2026-05-07 01:41 31.39523 129.07310 35992 ft 494 kts 317°
2026-05-07 01:41 31.44815 129.02199 35993 ft 494 kts 317°
2026-05-07 01:42 31.50135 128.97052 35991 ft 495 kts 317°
2026-05-07 01:42 31.55363 128.91986 35991 ft 495 kts 317°
2026-05-07 01:43 31.60667 128.86841 35990 ft 495 kts 317°
2026-05-07 01:43 31.66006 128.81651 35988 ft 495 kts 317°
2026-05-07 01:44 31.71313 128.76486 35987 ft 495 kts 317°
2026-05-07 01:44 31.76638 128.71297 35988 ft 495 kts 316°
2026-05-07 01:45 31.81953 128.66107 35990 ft 495 kts 316°
2026-05-07 01:45 31.87267 128.60910 35989 ft 495 kts 316°
2026-05-07 01:46 31.92583 128.55704 35989 ft 495 kts 316°
2026-05-07 01:46 31.97872 128.50517 35988 ft 496 kts 316°
2026-05-07 01:47 32.03193 128.45290 35989 ft 496 kts 316°
2026-05-07 01:47 32.08513 128.40056 35988 ft 496 kts 316°
2026-05-07 01:48 32.13819 128.34827 35987 ft 496 kts 316°
2026-05-07 01:48 32.19096 128.29619 35993 ft 496 kts 316°
2026-05-07 01:49 32.24440 128.24335 35996 ft 496 kts 316°
2026-05-07 01:49 32.29715 128.19113 35996 ft 496 kts 316°
2026-05-07 01:50 32.35010 128.13861 35995 ft 496 kts 316°
2026-05-07 01:50 32.40308 128.08600 35990 ft 496 kts 316°
2026-05-07 01:51 32.45643 128.03293 35990 ft 496 kts 316°
2026-05-07 01:51 32.50920 127.98034 35997 ft 496 kts 316°
2026-05-07 01:52 32.56223 127.92741 35993 ft 496 kts 316°
2026-05-07 01:52 32.61510 127.87457 35991 ft 495 kts 316°
2026-05-07 01:53 32.66802 127.82158 35992 ft 495 kts 316°
2026-05-07 01:53 32.72052 127.76894 35991 ft 495 kts 316°
2026-05-07 01:54 32.77334 127.71589 35992 ft 495 kts 316°
2026-05-07 01:54 32.82613 127.66278 35992 ft 495 kts 316°
2026-05-07 01:55 32.87843 127.61008 35990 ft 494 kts 315°
2026-05-07 01:55 32.93098 127.55704 35993 ft 494 kts 316°
2026-05-07 01:56 32.98369 127.50376 35990 ft 495 kts 316°
2026-05-07 01:56 33.03618 127.45061 35988 ft 495 kts 315°
2026-05-07 01:57 33.08854 127.39751 35990 ft 494 kts 315°
2026-05-07 01:57 33.14076 127.34447 35988 ft 493 kts 315°
2026-05-07 01:58 33.19318 127.29113 35993 ft 493 kts 315°
2026-05-07 01:58 33.24526 127.23805 35997 ft 493 kts 315°
2026-05-07 01:59 33.29742 127.18481 35996 ft 492 kts 315°
2026-05-07 01:59 33.34951 127.13155 35995 ft 491 kts 315°
2026-05-07 02:00 33.40144 127.07836 35997 ft 491 kts 315°
2026-05-07 02:00 33.45312 127.02535 35993 ft 491 kts 315°
2026-05-07 02:01 33.50521 126.97182 35992 ft 491 kts 315°
2026-05-07 02:01 33.55727 126.91825 35994 ft 491 kts 315°
2026-05-07 02:02 33.60889 126.86504 35995 ft 491 kts 315°
2026-05-07 02:02 33.66067 126.81158 35993 ft 489 kts 315°
2026-05-07 02:03 33.71222 126.75826 35994 ft 489 kts 315°
2026-05-07 02:03 33.76376 126.70486 35992 ft 489 kts 315°
2026-05-07 02:04 33.81536 126.65131 35988 ft 490 kts 315°
2026-05-07 02:04 33.86672 126.59794 35990 ft 488 kts 315°
2026-05-07 02:05 33.91845 126.54409 35987 ft 488 kts 315°
2026-05-07 02:05 33.96987 126.49046 35981 ft 488 kts 315°
2026-05-07 02:06 34.02134 126.43671 35979 ft 487 kts 315°
2026-05-07 02:06 34.07235 126.38334 35970 ft 487 kts 315°
2026-05-07 02:07 34.12358 126.32964 35983 ft 486 kts 314°
2026-05-07 02:07 34.20012 126.24926 35980 ft 486 kts 314°
2026-05-07 02:08 34.25123 126.19547 35976 ft 486 kts 314°
2026-05-07 02:08 34.30208 126.14186 35979 ft 486 kts 314°
2026-05-07 02:09 34.35339 126.08768 35978 ft 486 kts 314°
2026-05-07 02:09 34.40431 126.03381 35980 ft 486 kts 314°
2026-05-07 02:10 34.45517 125.97993 35982 ft 485 kts 314°
2026-05-07 02:10 34.50619 125.92578 35980 ft 485 kts 314°
2026-05-07 02:11 34.55701 125.87176 35979 ft 485 kts 314°
2026-05-07 02:11 34.60787 125.81760 35978 ft 485 kts 314°
2026-05-07 02:12 34.65857 125.76351 35978 ft 485 kts 314°
2026-05-07 02:12 34.70978 125.70879 35983 ft 486 kts 314°
2026-05-07 02:13 34.76018 125.65485 35977 ft 485 kts 314°
2026-05-07 02:13 34.81124 125.60010 35975 ft 485 kts 314°
2026-05-07 02:14 34.86175 125.54586 35976 ft 484 kts 314°
2026-05-07 02:14 34.91226 125.49152 35976 ft 483 kts 314°
2026-05-07 02:15 34.96275 125.43711 35969 ft 483 kts 314°
2026-05-07 02:15 35.01321 125.38264 35965 ft 482 kts 313°
2026-05-07 02:16 35.06355 125.32820 35980 ft 482 kts 313°
2026-05-07 02:16 35.11404 125.27351 35973 ft 482 kts 313°
2026-05-07 02:17 35.16408 125.21922 35970 ft 482 kts 313°
2026-05-07 02:17 35.21422 125.16472 35972 ft 481 kts 313°
2026-05-07 02:18 35.26437 125.11011 35966 ft 480 kts 313°
2026-05-07 02:18 35.31420 125.05576 35966 ft 480 kts 312°
2026-05-07 02:19 35.36439 125.00092 35968 ft 479 kts 312°
2026-05-07 02:19 35.41407 124.94656 35962 ft 480 kts 312°
2026-05-07 02:20 35.46390 124.89191 35959 ft 479 kts 312°
2026-05-07 02:20 35.51366 124.83728 35960 ft 478 kts 312°
2026-05-07 02:21 35.56312 124.78286 35953 ft 477 kts 312°
2026-05-07 02:21 35.61250 124.72844 35954 ft 477 kts 312°
2026-05-07 02:22 35.66184 124.67396 35953 ft 476 kts 312°
2026-05-07 02:22 35.71143 124.61913 35955 ft 476 kts 312°
2026-05-07 02:23 35.76052 124.56474 35952 ft 476 kts 311°
2026-05-07 02:23 35.80977 124.51009 35957 ft 475 kts 311°
2026-05-07 02:24 35.85880 124.45558 35952 ft 475 kts 311°
2026-05-07 02:24 35.90787 124.40094 35949 ft 474 kts 311°
2026-05-07 02:25 35.95677 124.34639 35948 ft 474 kts 311°
2026-05-07 02:25 36.00559 124.29183 35961 ft 474 kts 310°
2026-05-07 02:26 36.05474 124.23680 35960 ft 473 kts 311°
2026-05-07 02:26 36.10331 124.18233 35959 ft 474 kts 310°
2026-05-07 02:27 36.15232 124.12727 35953 ft 473 kts 310°
2026-05-07 02:27 36.20107 124.07241 35951 ft 473 kts 310°
2026-05-07 02:28 36.24979 124.01748 35960 ft 472 kts 310°
2026-05-07 02:28 36.29834 123.96265 35965 ft 471 kts 310°
2026-05-07 02:29 36.34640 123.90829 35957 ft 469 kts 310°
2026-05-07 02:29 36.39473 123.85352 35957 ft 469 kts 310°
2026-05-07 02:30 36.44250 123.79928 35950 ft 468 kts 310°
2026-05-07 02:30 36.49086 123.74427 35952 ft 467 kts 310°
2026-05-07 02:31 36.53858 123.68992 35943 ft 466 kts 309°
2026-05-07 02:31 36.58647 123.63525 35944 ft 465 kts 309°
2026-05-07 02:32 36.63403 123.58088 35946 ft 465 kts 309°
2026-05-07 02:32 36.68157 123.52640 35948 ft 466 kts 309°
2026-05-07 02:33 36.72936 123.47157 35949 ft 465 kts 309°
2026-05-07 02:33 36.77705 123.41676 35952 ft 464 kts 309°
2026-05-07 02:34 36.81752 123.35674 35953 ft 447 kts 295°
2026-05-07 02:34 36.84285 123.28725 35977 ft 436 kts 284°
2026-05-07 02:35 36.86234 123.21544 35972 ft 435 kts 283°
2026-05-07 02:35 36.88091 123.14390 35975 ft 435 kts 282°
2026-05-07 02:36 36.89891 123.07194 35976 ft 435 kts 282°
2026-05-07 02:36 36.91667 122.99940 35975 ft 434 kts 282°
2026-05-07 02:37 36.93414 122.92709 35974 ft 434 kts 281°
2026-05-07 02:37 36.95138 122.85521 35977 ft 433 kts 282°
2026-05-07 02:38 36.96857 122.78316 35974 ft 431 kts 282°
2026-05-07 02:38 36.98561 122.71137 35971 ft 432 kts 281°
2026-05-07 02:39 37.00266 122.63932 35975 ft 431 kts 281°
2026-05-07 02:39 37.01963 122.56737 35974 ft 431 kts 281°
2026-05-07 02:40 37.03655 122.49538 35975 ft 430 kts 282°
2026-05-07 02:40 37.05330 122.42391 35973 ft 429 kts 282°
2026-05-07 02:41 37.07595 122.35428 35968 ft 438 kts 293°
2026-05-07 02:41 37.11373 122.29286 35987 ft 455 kts 306°
2026-05-07 02:42 37.15362 122.23322 35987 ft 439 kts 294°
2026-05-07 02:42 37.18245 122.16623 35993 ft 433 kts 289°
2026-05-07 02:43 37.20750 122.09772 35990 ft 431 kts 288°
2026-05-07 02:43 37.23040 122.02845 35993 ft 428 kts 285°
2026-05-07 02:44 37.25093 121.95859 35991 ft 427 kts 284°
2026-05-07 02:44 37.27031 121.88817 35987 ft 426 kts 283°
2026-05-07 02:45 37.28901 121.81779 35983 ft 425 kts 283°
2026-05-07 02:45 37.30742 121.74719 35982 ft 424 kts 282°
2026-05-07 02:46 37.32568 121.67635 35984 ft 424 kts 283°
2026-05-07 02:46 37.34364 121.60619 35986 ft 423 kts 282°
2026-05-07 02:47 37.36152 121.53597 35987 ft 423 kts 283°
2026-05-07 02:47 37.37944 121.46532 35983 ft 423 kts 283°
2026-05-07 02:48 37.39714 121.39531 35982 ft 423 kts 282°
2026-05-07 02:48 37.41486 121.32501 36008 ft 422 kts 282°
2026-05-07 02:49 37.43256 121.25459 36014 ft 421 kts 282°
2026-05-07 02:49 37.45013 121.18447 36019 ft 421 kts 282°
2026-05-07 02:50 37.47092 121.11508 36023 ft 425 kts 286°
2026-05-07 02:50 37.49322 121.04655 36020 ft 425 kts 286°
2026-05-07 02:51 37.51549 120.97724 36026 ft 424 kts 286°
2026-05-07 02:51 37.53739 120.90855 36035 ft 424 kts 285°
2026-05-07 02:52 37.55918 120.83990 36037 ft 423 kts 285°
2026-05-07 02:52 37.58094 120.77102 36044 ft 423 kts 285°
2026-05-07 02:53 37.60321 120.70225 36037 ft 422 kts 286°
2026-05-07 02:53 37.62561 120.63440 36045 ft 421 kts 286°
2026-05-07 02:54 37.64814 120.56583 36040 ft 420 kts 287°
2026-05-07 02:54 37.67543 120.49999 36048 ft 426 kts 293°
2026-05-07 02:55 37.70512 120.43510 36053 ft 426 kts 292°
2026-05-07 02:55 37.73470 120.37027 36056 ft 425 kts 292°
2026-05-07 02:56 37.74943 120.33791 35879 ft 424 kts 292°
2026-05-07 02:56 37.76403 120.30582 36088 ft 423 kts 292°
2026-05-07 02:56 37.79328 120.24133 36085 ft 425 kts 292°
2026-05-07 02:57 37.82281 120.17615 36079 ft 424 kts 292°
2026-05-07 02:57 37.85027 120.11554 36090 ft 404 kts 292°
2026-05-07 02:58 37.86112 120.09158 36097 ft 393 kts 292°
2026-05-07 02:58 37.87288 120.06554 36063 ft 384 kts 292°
2026-05-07 02:58 37.90108 120.00282 36064 ft 381 kts 291°
2026-05-07 02:59 37.91291 119.97656 35579 ft 377 kts 291°
2026-05-07 02:59 37.92576 119.94789 34653 ft 384 kts 291°
2026-05-07 02:59 37.93917 119.91790 33477 ft 394 kts 291°
2026-05-07 02:59 37.95274 119.88758 32326 ft 401 kts 291°
2026-05-07 03:00 37.96650 119.85684 31245 ft 406 kts 291°
2026-05-07 03:00 37.98042 119.82580 30568 ft 402 kts 291°
2026-05-07 03:00 37.99415 119.79518 30103 ft 395 kts 291°
2026-05-07 03:00 38.00771 119.76492 29560 ft 389 kts 291°
2026-05-07 03:01 38.02082 119.73556 28937 ft 387 kts 291°
2026-05-07 03:01 38.03408 119.70583 28428 ft 382 kts 291°
2026-05-07 03:01 38.04727 119.67611 27977 ft 400 kts 292°
2026-05-07 03:01 38.06135 119.64427 27560 ft 424 kts 292°
2026-05-07 03:02 38.07613 119.61095 27149 ft 437 kts 292°
2026-05-07 03:02 38.09105 119.57745 26752 ft 437 kts 292°
2026-05-07 03:02 38.10609 119.54351 26343 ft 436 kts 291°
2026-05-07 03:02 38.11879 119.50873 25948 ft 428 kts 287°
2026-05-07 03:03 38.13014 119.47426 25541 ft 426 kts 287°
2026-05-07 03:03 38.14144 119.43964 25139 ft 421 kts 287°
2026-05-07 03:03 38.15246 119.40585 24735 ft 420 kts 287°
2026-05-07 03:03 38.16363 119.37156 24336 ft 417 kts 287°
2026-05-07 03:04 38.17474 119.33737 23948 ft 416 kts 287°
2026-05-07 03:04 38.18562 119.30389 23583 ft 411 kts 287°
2026-05-07 03:04 38.19644 119.27058 23191 ft 401 kts 287°
2026-05-07 03:04 38.20693 119.23818 22855 ft 403 kts 287°
2026-05-07 03:05 38.21766 119.20498 22473 ft 403 kts 287°
2026-05-07 03:05 38.22908 119.16961 22065 ft 404 kts 287°
2026-05-07 03:05 38.23975 119.13656 21712 ft 403 kts 288°
2026-05-07 03:05 38.25039 119.10355 21333 ft 401 kts 288°
2026-05-07 03:06 38.26096 119.07074 20948 ft 399 kts 288°
2026-05-07 03:06 38.27132 119.03854 20579 ft 397 kts 288°
2026-05-07 03:06 38.28170 119.00623 20221 ft 396 kts 288°
2026-05-07 03:06 38.29208 118.97391 20118 ft 391 kts 288°
2026-05-07 03:07 38.30238 118.94177 20116 ft 392 kts 288°
2026-05-07 03:07 38.31262 118.90977 20102 ft 395 kts 288°
2026-05-07 03:07 38.32328 118.87645 20112 ft 392 kts 288°
2026-05-07 03:07 38.33434 118.84181 20108 ft 392 kts 289°
2026-05-07 03:08 38.34528 118.80753 20087 ft 394 kts 289°
2026-05-07 03:08 38.35556 118.77530 20104 ft 391 kts 289°
2026-05-07 03:08 38.36572 118.74339 20099 ft 394 kts 289°
2026-05-07 03:08 38.37599 118.71130 20109 ft 390 kts 289°
2026-05-07 03:09 38.38628 118.67909 20107 ft 392 kts 289°
2026-05-07 03:09 38.39658 118.64685 20110 ft 393 kts 289°
2026-05-07 03:09 38.40677 118.61488 20120 ft 392 kts 289°
2026-05-07 03:09 38.41706 118.58262 20101 ft 392 kts 289°
2026-05-07 03:10 38.42728 118.55048 20099 ft 392 kts 289°
2026-05-07 03:10 38.43751 118.51827 20117 ft 391 kts 289°
2026-05-07 03:10 38.44810 118.48492 20096 ft 394 kts 289°
2026-05-07 03:10 38.45835 118.45261 20114 ft 392 kts 289°
2026-05-07 03:11 38.46856 118.42033 20116 ft 394 kts 289°
2026-05-07 03:11 38.47896 118.38748 20082 ft 393 kts 289°
2026-05-07 03:11 38.48965 118.35360 20100 ft 391 kts 289°
2026-05-07 03:11 38.49996 118.32089 20133 ft 392 kts 289°
2026-05-07 03:12 38.51026 118.28816 20123 ft 390 kts 289°
2026-05-07 03:12 38.52036 118.25609 20135 ft 386 kts 289°
2026-05-07 03:12 38.53038 118.22420 20118 ft 383 kts 289°
2026-05-07 03:12 38.54022 118.19284 19973 ft 383 kts 289°
2026-05-07 03:13 38.55016 118.16113 19836 ft 382 kts 289°
2026-05-07 03:13 38.56002 118.12962 19818 ft 382 kts 289°
2026-05-07 03:13 38.56974 118.09851 19842 ft 384 kts 289°
2026-05-07 03:13 38.57966 118.06675 19815 ft 384 kts 290°
2026-05-07 03:14 38.58946 118.03536 19794 ft 382 kts 289°
2026-05-07 03:14 38.59981 118.00374 19831 ft 385 kts 291°
2026-05-07 03:14 38.62190 117.94135 19797 ft 385 kts 291°
2026-05-07 03:15 38.63287 117.91026 19821 ft 384 kts 291°
2026-05-07 03:15 38.64372 117.87938 19830 ft 387 kts 291°
2026-05-07 03:15 38.65477 117.84781 19838 ft 386 kts 292°
2026-05-07 03:15 38.66563 117.81678 19782 ft 384 kts 292°
2026-05-07 03:16 38.67659 117.78535 19815 ft 385 kts 292°
2026-05-07 03:16 38.68752 117.75399 19831 ft 385 kts 292°
2026-05-07 03:16 38.69830 117.72302 19818 ft 384 kts 292°
2026-05-07 03:16 38.70910 117.69192 19824 ft 387 kts 292°
2026-05-07 03:17 38.72008 117.66029 19837 ft 386 kts 292°
2026-05-07 03:17 38.73097 117.62887 19808 ft 388 kts 292°
2026-05-07 03:17 38.74181 117.59757 19826 ft 387 kts 292°
2026-05-07 03:17 38.75274 117.56596 19815 ft 385 kts 292°
2026-05-07 03:18 38.76348 117.53488 19819 ft 388 kts 292°
2026-05-07 03:18 38.77437 117.50332 19820 ft 386 kts 292°
2026-05-07 03:18 38.78520 117.47191 19839 ft 386 kts 292°
2026-05-07 03:18 38.79613 117.44016 19831 ft 388 kts 292°
2026-05-07 03:19 38.80691 117.40879 19830 ft 387 kts 292°
2026-05-07 03:19 38.81781 117.37708 19790 ft 386 kts 292°
2026-05-07 03:19 38.82851 117.34589 19706 ft 385 kts 292°
2026-05-07 03:19 38.84045 117.31310 19549 ft 386 kts 297°
2026-05-07 03:20 38.85638 117.28378 19432 ft 389 kts 307°
2026-05-07 03:20 38.87602 117.25957 19250 ft 395 kts 317°
2026-05-07 03:20 38.89943 117.24017 19090 ft 402 kts 328°
2026-05-07 03:20 38.92538 117.22646 19006 ft 406 kts 335°
2026-05-07 03:21 38.95221 117.21474 18914 ft 406 kts 336°
2026-05-07 03:21 38.97871 117.20324 18865 ft 404 kts 336°
2026-05-07 03:21 39.00544 117.19158 18742 ft 404 kts 336°
2026-05-07 03:21 39.03179 117.18003 18625 ft 404 kts 336°
2026-05-07 03:22 39.05830 117.16836 18565 ft 402 kts 336°
2026-05-07 03:22 39.08482 117.15668 18532 ft 400 kts 336°
2026-05-07 03:22 39.11105 117.14509 18387 ft 401 kts 336°
2026-05-07 03:22 39.13780 117.13324 18306 ft 400 kts 336°
2026-05-07 03:23 39.16404 117.12161 18243 ft 399 kts 336°
2026-05-07 03:23 39.19030 117.10995 18139 ft 399 kts 336°
2026-05-07 03:23 39.21646 117.09834 18115 ft 397 kts 336°
2026-05-07 03:23 39.24264 117.08670 18093 ft 395 kts 336°
2026-05-07 03:24 39.26834 117.07526 18091 ft 393 kts 336°
2026-05-07 03:24 39.29418 117.06375 18098 ft 390 kts 336°
2026-05-07 03:24 39.31991 117.05228 18103 ft 388 kts 336°
2026-05-07 03:24 39.34541 117.04090 18103 ft 386 kts 336°
2026-05-07 03:25 39.37082 117.02955 18111 ft 384 kts 336°
2026-05-07 03:25 39.39582 117.01837 18119 ft 382 kts 337°
2026-05-07 03:25 39.42097 117.00711 18100 ft 380 kts 337°
2026-05-07 03:25 39.44564 116.99607 18065 ft 372 kts 337°
2026-05-07 03:26 39.46991 116.98520 18071 ft 362 kts 336°
2026-05-07 03:26 39.49303 116.97485 17809 ft 345 kts 336°
2026-05-07 03:26 39.51527 116.96487 17433 ft 332 kts 337°
2026-05-07 03:26 39.53666 116.95525 17053 ft 321 kts 337°
2026-05-07 03:27 39.55755 116.94585 16680 ft 311 kts 337°
2026-05-07 03:27 39.57740 116.93690 16302 ft 301 kts 338°
2026-05-07 03:27 39.59708 116.92803 15923 ft 293 kts 338°
2026-05-07 03:27 39.61643 116.92086 15535 ft 287 kts 346°
2026-05-07 03:28 39.63601 116.91734 15162 ft 281 kts 349°
2026-05-07 03:28 39.65512 116.91444 14785 ft 275 kts 350°
2026-05-07 03:28 39.67384 116.91162 14402 ft 270 kts 350°
2026-05-07 03:28 39.69243 116.90881 14022 ft 267 kts 350°
2026-05-07 03:29 39.71091 116.90601 13643 ft 267 kts 350°
2026-05-07 03:29 39.72940 116.90321 13263 ft 266 kts 351°
2026-05-07 03:29 39.74759 116.90045 12887 ft 264 kts 351°
2026-05-07 03:29 39.76568 116.89771 12509 ft 263 kts 351°
2026-05-07 03:30 39.78387 116.89495 12130 ft 263 kts 351°
2026-05-07 03:30 39.80199 116.89220 11744 ft 260 kts 352°
2026-05-07 03:30 39.81980 116.88950 11337 ft 258 kts 352°
2026-05-07 03:30 39.83774 116.88678 10881 ft 257 kts 352°
2026-05-07 03:31 39.85532 116.88411 10427 ft 255 kts 352°
2026-05-07 03:31 39.87278 116.88098 9964 ft 254 kts 344°
2026-05-07 03:31 39.88841 116.86988 9471 ft 255 kts 317°
2026-05-07 03:31 39.89779 116.85059 8995 ft 262 kts 291°
2026-05-07 03:32 39.89887 116.82680 8512 ft 268 kts 264°
2026-05-07 03:32 39.89101 116.80479 8041 ft 274 kts 235°
2026-05-07 03:32 39.87814 116.79127 7690 ft 284 kts 211°
2026-05-07 03:32 39.85916 116.78494 7273 ft 287 kts 184°
2026-05-07 03:33 39.83921 116.78517 6883 ft 285 kts 179°
2026-05-07 03:33 39.81958 116.78606 6487 ft 284 kts 179°
2026-05-07 03:33 39.79977 116.78700 6083 ft 283 kts 179°
2026-05-07 03:33 39.78027 116.78793 5683 ft 282 kts 179°
2026-05-07 03:34 39.76055 116.78886 5286 ft 280 kts 179°
2026-05-07 03:34 39.74131 116.78978 5016 ft 274 kts 179°
2026-05-07 03:34 39.72256 116.79041 4765 ft 270 kts 184°
2026-05-07 03:34 39.70483 116.78371 4497 ft 262 kts 215°
2026-05-07 03:35 39.69154 116.76856 4242 ft 251 kts 239°
2026-05-07 03:35 39.68438 116.74882 3988 ft 235 kts 259°
2026-05-07 03:35 39.68082 116.72918 3891 ft 217 kts 266°
2026-05-07 03:35 39.67849 116.70976 3886 ft 218 kts 269°
2026-05-07 03:36 39.67744 116.68980 3882 ft 213 kts 284°
2026-05-07 03:36 39.68255 116.67246 3875 ft 201 kts 308°
2026-05-07 03:36 39.69260 116.66074 3872 ft 193 kts 339°
2026-05-07 03:36 39.70555 116.65613 3885 ft 195 kts 349°
2026-05-07 03:37 39.71886 116.65311 3885 ft 192 kts 351°
2026-05-07 03:37 39.73202 116.65065 3884 ft 193 kts 352°
2026-05-07 03:37 39.74543 116.64838 3890 ft 193 kts 353°
2026-05-07 03:37 39.75941 116.64615 3886 ft 195 kts 353°
2026-05-07 03:38 39.77330 116.64401 3888 ft 194 kts 353°
2026-05-07 03:38 39.78724 116.64188 3886 ft 195 kts 353°
2026-05-07 03:38 39.80098 116.63979 3888 ft 196 kts 353°
2026-05-07 03:38 39.81473 116.63768 3886 ft 194 kts 353°
2026-05-07 03:39 39.82835 116.63559 3887 ft 194 kts 353°
2026-05-07 03:39 39.84177 116.63351 3887 ft 194 kts 353°
2026-05-07 03:39 39.85527 116.63142 3886 ft 194 kts 353°
2026-05-07 03:39 39.86877 116.62932 3699 ft 197 kts 353°
2026-05-07 03:40 39.88215 116.62723 3446 ft 192 kts 353°
2026-05-07 03:40 39.89562 116.62512 3194 ft 194 kts 353°
2026-05-07 03:40 39.90849 116.62312 2947 ft 177 kts 353°
2026-05-07 03:40 39.92029 116.62126 2726 ft 162 kts 353°
2026-05-07 03:41 39.93093 116.61960 2539 ft 147 kts 353°
2026-05-07 03:41 39.94069 116.61807 2356 ft 138 kts 353°
2026-05-07 03:41 39.95021 116.61661 2178 ft 137 kts 353°
2026-05-07 03:41 39.95895 116.61523 2013 ft 136 kts 353°
2026-05-07 03:42 39.96804 116.61382 1838 ft 135 kts 353°
2026-05-07 03:42 39.97689 116.61241 1666 ft 135 kts 354°
2026-05-07 03:42 39.98656 116.61093 1476 ft 139 kts 354°
2026-05-07 03:42 39.99606 116.60919 1273 ft 136 kts 353°
2026-05-07 03:43 40.00579 116.60777 1058 ft 142 kts 352°
2026-05-07 03:43 40.01557 116.60605 892 ft 144 kts 354°
2026-05-07 03:43 40.02546 116.60416 692 ft 145 kts 351°
2026-05-07 03:43 40.03552 116.60331 526 ft 140 kts 350°
2026-05-07 03:44 40.04509 116.60178 375 ft 137 kts 346°
2026-05-07 03:44 40.05444 116.60017 191 ft 134 kts 347°
2026-05-07 03:44 40.06305 116.59859 130 ft 110 kts 358°
2026-05-07 03:44 40.06947 116.59790 130 ft 74 kts 353°
2026-05-07 03:45 40.07339 116.59729 130 ft 39 kts 352°
2026-05-07 03:45 40.07488 116.59710 130 ft 9 kts 357°
2026-05-07 03:45 40.07593 116.59714 130 ft 20 kts
2026-05-07 03:45 40.07731 116.59764 130 ft 17 kts 23°
2026-05-07 03:46 40.07805 116.59833 130 ft 8 kts 72°
2026-05-07 03:46 40.07813 116.59912 130 ft 8 kts 84°
2026-05-07 03:46 40.07809 116.59978 130 ft 6 kts 129°
2026-05-07 03:46 40.07756 116.60012 130 ft 10 kts 168°
2026-05-07 03:47 40.07671 116.60031 130 ft 14 kts 167°
2026-05-07 03:47 40.07621 116.60122 130 ft 12 kts 117°
2026-05-07 03:47 40.07581 116.60216 130 ft 10 kts 127°
2026-05-07 03:47 40.07516 116.60294 130 ft 14 kts 148°
2026-05-07 03:48 40.07415 116.60337 130 ft 15 kts 173°
2026-05-07 03:48 40.07314 116.60355 130 ft 14 kts 173°
2026-05-07 03:48 40.07219 116.60371 130 ft 13 kts 172°
2026-05-07 03:48 40.07174 116.60357 130 ft 2 kts 248°
2026-05-07 03:49 40.07171 116.60321 130 ft 7 kts 266°
2026-05-07 03:49 40.07168 116.60272 130 ft 0 kts 265°
2026-05-07 03:49 40.07168 116.60270 130 ft 0 kts 265°